DL9MFL-6 Weather Reports


Display with metric or nautical units.
time (UTC)temp
F
wind
direction
speed
MPH
gust
MPH
rain 1hr
in
rain 24hr
in
rain mn
in
humidity
%
barometer
mb
20260505224629 52 135 0.0 2.0 0.00 0.01 0.00 87 1006.9
20260505224530 52 135 0.0 2.0 0.00 0.01 0.00 87 1006.9
20260505224452 52 135 0.0 2.0 0.00 0.01 0.00 87 1006.9
20260505224448 52 135 0.0 2.0 0.00 0.01 0.00 87 1006.9
20260505224440 52 135 0.0 2.0 0.00 0.01 0.00 87 1007.0
20260505224129 52 135 0.0 2.0 0.00 0.01 0.00 87 1007.0
20260505224029 52 135 0.0 2.0 0.00 0.01 0.00 87 1007.0
20260505223929 52 135 0.0 2.0 0.00 0.01 0.00 87 1007.0
20260505223829 52 135 0.0 1.0 0.00 0.01 0.00 87 1007.0
20260505223726 52 135 0.0 1.0 0.00 0.01 0.00 87 1007.1
20260505223629 52 135 0.0 1.0 0.00 0.01 0.00 87 1007.1
20260505223528 52 135 0.0 1.0 0.00 0.01 0.00 87 1007.0
20260505223428 52 135 0.0 1.0 0.00 0.01 0.00 87 1007.0
20260505223329 52 135 0.0 1.0 0.00 0.01 0.00 86 1007.0
20260505223226 52 135 0.0 0.0 0.00 0.01 0.00 86 1007.0
20260505223129 52 135 0.0 2.0 0.00 0.01 0.00 86 1007.0
20260505223029 52 135 0.0 2.0 0.00 0.01 0.00 86 1007.1
20260505222929 52 135 0.0 2.0 0.00 0.01 0.00 86 1007.0
20260505222829 52 135 0.0 2.0 0.00 0.01 0.00 86 1007.1
20260505222726 52 135 1.0 2.0 0.00 0.01 0.00 86 1007.1
20260505222628 52 135 1.0 3.0 0.00 0.01 0.00 86 1007.0
20260505222528 52 135 1.0 3.0 0.00 0.01 0.00 86 1007.0
20260505222428 52 135 1.0 3.0 0.00 0.01 0.00 86 1007.1
20260505222328 52 135 1.0 3.0 0.00 0.01 0.00 86 1007.0
20260505222226 52 135 1.0 3.0 0.00 0.01 0.00 86 1007.0
20260505222128 52 135 1.0 3.0 0.00 0.01 0.00 86 1007.0
20260505222026 52 135 1.0 3.0 0.00 0.01 0.00 86 1007.0
20260505221926 52 135 1.0 3.0 0.00 0.01 0.00 86 1007.0
20260505221826 52 135 1.0 3.0 0.00 0.01 0.00 86 1006.9
20260505221726 52 135 1.0 3.0 0.00 0.01 0.00 86 1006.9
20260505221626 52 136 1.0 3.0 0.00 0.01 0.00 86 1006.9
20260505221526 52 136 1.0 3.0 0.00 0.01 0.00 86 1006.9
20260505221426 52 136 1.0 3.0 0.00 0.01 0.00 86 1006.9
20260505221326 52 136 1.0 3.0 0.00 0.01 0.00 86 1006.8
20260505221226 52 136 1.0 3.0 0.00 0.01 0.00 86 1006.9
20260505221124 52 140 1.0 3.0 0.00 0.01 0.00 86 1006.9
20260505221024 52 140 1.0 4.0 0.00 0.01 0.00 86 1006.8
20260505220924 52 140 1.0 4.0 0.00 0.01 0.00 86 1006.9
20260505220822 52 140 2.0 5.0 0.00 0.01 0.00 86 1006.8
20260505220719 52 140 2.0 5.0 0.00 0.01 0.00 86 1006.9
20260505220616 52 140 2.0 5.0 0.00 0.01 0.00 86 1006.8
20260505220516 52 140 2.0 5.0 0.00 0.01 0.00 86 1006.9
20260505220416 52 140 2.0 5.0 0.00 0.01 0.00 86 1006.8
20260505220316 52 140 2.0 5.0 0.00 0.01 0.00 86 1006.7
20260505220214 52 140 2.0 5.0 0.00 0.01 0.00 86 1006.7
20260505220109 52 140 2.0 5.0 0.00 0.01 0.00 86 1006.8
20260505220009 52 138 2.0 5.0 0.00 0.01 0.00 85 1006.8
20260505215809 52 123 2.0 5.0 0.00 0.01 0.01 85 1006.8
20260505215709 53 138 2.0 5.0 0.00 0.01 0.01 85 1006.8
20260505215701 53 108 3.0 8.0 0.00 0.01 0.01 85 1006.8
20260505215645 53 111 2.0 6.0 0.00 0.01 0.01 85 1006.7
20260505215640 53 111 2.0 7.0 0.00 0.01 0.01 85 1006.8
20260505215425 53 111 2.0 8.0 0.00 0.01 0.01 85 1006.8
20260505215421 53 110 3.0 8.0 0.00 0.01 0.01 85 1006.8
20260505215413 53 108 3.0 8.0 0.00 0.01 0.01 85 1006.8
20260505215102 53 108 3.0 8.0 0.00 0.01 0.01 85 1006.8
20260505215001 53 171 3.0 8.0 0.00 0.01 0.01 85 1006.8
20260505214924 53 194 3.0 8.0 0.00 0.01 0.01 85 1006.9
20260505214920 53 208 4.0 8.0 0.00 0.01 0.01 85 1006.9
20260505214912 53 208 3.0 8.0 0.00 0.01 0.01 85 1006.8
20260505214601 53 202 3.0 8.0 0.00 0.01 0.01 85 1006.9
20260505214501 53 206 3.0 8.0 0.00 0.01 0.01 85 1006.8
20260505214401 53 209 3.0 7.0 0.00 0.01 0.01 85 1006.9
20260505214301 53 199 2.0 7.0 0.00 0.01 0.01 85 1006.8
20260505214201 53 206 2.0 7.0 0.00 0.01 0.01 85 1006.8
20260505214101 53 196 2.0 7.0 0.00 0.01 0.01 85 1006.8
20260505214001 53 199 3.0 7.0 0.00 0.01 0.01 85 1006.8
20260505213901 53 198 3.0 8.0 0.00 0.01 0.01 85 1006.8
20260505213801 53 234 3.0 8.0 0.00 0.01 0.01 85 1006.8
20260505213701 53 234 3.0 8.0 0.00 0.01 0.01 85 1006.8
20260505213601 53 212 3.0 8.0 0.00 0.01 0.01 85 1006.8
20260505213501 53 211 3.0 8.0 0.00 0.01 0.01 85 1006.8
20260505213357 53 223 3.0 8.0 0.00 0.01 0.01 85 1006.8
20260505213257 53 227 3.0 8.0 0.00 0.01 0.01 85 1006.8
20260505213201 53 221 4.0 8.0 0.00 0.01 0.01 85 1006.8
20260505213157 53 221 4.0 8.0 0.00 0.01 0.01 85 1006.8
20260505213057 53 240 4.0 8.0 0.00 0.01 0.01 85 1006.8
20260505212957 53 271 3.0 8.0 0.00 0.01 0.01 85 1006.8
20260505212928 53 282 3.0 8.0 0.00 0.01 0.01 85 1006.8
20260505212920 53 269 3.0 8.0 0.00 0.01 0.01 85 1006.8
20260505212916 53 239 3.0 8.0 0.00 0.01 0.01 85 1006.8
20260505212651 53 282 3.0 8.0 0.00 0.01 0.01 85 1006.8
20260505212551 53 269 3.0 8.0 0.00 0.01 0.01 85 1006.8
20260505212451 53 238 3.0 6.0 0.00 0.01 0.01 85 1006.8
20260505212344 53 262 3.0 6.0 0.00 0.01 0.01 85 1006.8
20260505212245 53 275 3.0 7.0 0.00 0.01 0.01 85 1006.7
20260505212200 53 250 3.0 7.0 0.00 0.01 0.01 85 1006.7
20260505212145 53 250 3.0 7.0 0.00 0.01 0.01 85 1006.7
20260505212045 53 238 3.0 7.0 0.00 0.01 0.01 85 1006.7
20260505211945 53 254 3.0 7.0 0.00 0.01 0.01 85 1006.7
20260505211839 53 277 3.0 7.0 0.00 0.01 0.01 85 1006.5
20260505211743 53 279 3.0 8.0 0.00 0.01 0.01 84 1006.5
20260505211701 53 250 3.0 8.0 0.00 0.01 0.01 84 1006.5
20260505211640 53 250 3.0 8.0 0.00 0.01 0.01 85 1006.5
20260505211539 53 251 3.0 8.0 0.00 0.01 0.01 85 1006.5
20260505211438 53 313 4.0 8.0 0.00 0.01 0.01 84 1006.5
20260505211337 53 246 4.0 8.0 0.00 0.01 0.01 84 1006.5
20260505211241 53 281 4.0 8.0 0.00 0.01 0.01 84 1006.4
20260505211200 53 281 4.0 8.0 0.00 0.01 0.01 84 1006.4
20260505211137 53 263 4.0 8.0 0.00 0.01 0.01 84 1006.4
20260505211037 53 264 3.0 8.0 0.00 0.01 0.01 84 1006.4
20260505210937 53 268 3.0 8.0 0.00 0.01 0.01 84 1006.4
20260505210837 53 242 3.0 8.0 0.00 0.01 0.01 84 1006.5
20260505210739 54 255 3.0 8.0 0.00 0.01 0.01 84 1006.4
20260505210701 54 255 3.0 8.0 0.00 0.01 0.01 84 1006.4
20260505210633 54 255 3.0 8.0 0.00 0.01 0.01 84 1006.5
20260505210533 54 251 3.0 8.0 0.00 0.01 0.01 84 1006.5
20260505210433 54 242 3.0 8.0 0.00 0.01 0.01 84 1006.5
20260505210333 54 250 2.0 5.0 0.00 0.01 0.01 84 1006.4
20260505210238 54 304 3.0 5.0 0.00 0.01 0.01 84 1006.4
20260505210201 54 262 3.0 7.0 0.00 0.01 0.01 84 1006.4
20260505210132 54 262 3.0 7.0 0.00 0.01 0.01 84 1006.5
20260505210032 54 252 3.0 8.0 0.00 0.01 0.01 84 1006.7
20260505205932 54 248 3.0 8.0 0.00 0.01 0.01 83 1006.7
20260505205833 54 248 3.0 8.0 0.00 0.01 0.01 83 1006.7
20260505205735 54 218 3.0 8.0 0.00 0.01 0.01 83 1006.7
20260505205700 54 264 3.0 8.0 0.00 0.01 0.01 83 1006.7
20260505205631 54 264 4.0 9.0 0.00 0.01 0.01 83 1006.7
20260505205530 54 226 4.0 9.0 0.00 0.01 0.01 83 1006.7
20260505205431 55 225 4.0 10.0 0.00 0.01 0.01 83 1006.7
20260505205330 55 219 4.0 10.0 0.00 0.01 0.01 82 1006.7
20260505205233 55 259 4.0 10.0 0.00 0.01 0.01 82 1006.8
20260505205201 55 248 4.0 10.0 0.00 0.01 0.01 82 1006.8
20260505205129 55 232 4.0 10.0 0.00 0.01 0.01 82 1006.8
20260505205030 55 219 4.0 10.0 0.00 0.01 0.01 82 1006.7
20260505204929 55 203 4.0 10.0 0.00 0.01 0.01 82 1006.8
20260505204829 55 238 4.0 10.0 0.00 0.01 0.01 82 1006.8
20260505204731 55 215 4.0 10.0 0.00 0.01 0.01 82 1006.9
20260505204701 55 218 4.0 10.0 0.00 0.01 0.01 82 1006.9
20260505204629 55 240 4.0 10.0 0.00 0.01 0.01 81 1006.9
20260505204529 55 250 5.0 10.0 0.00 0.01 0.01 81 1006.9
20260505204429 55 248 5.0 10.0 0.00 0.01 0.01 81 1006.9
20260505204329 55 244 5.0 9.0 0.00 0.01 0.01 81 1006.9
20260505204229 55 243 5.0 9.0 0.00 0.01 0.01 81 1006.8
20260505204201 55 255 5.0 13.0 0.00 0.01 0.01 81 1006.8
20260505204129 55 286 6.0 17.0 0.00 0.01 0.01 80 1006.9
20260505204029 55 249 6.0 17.0 0.00 0.01 0.01 80 1007.0
20260505203929 56 242 6.0 17.0 0.00 0.01 0.01 80 1006.9
20260505203829 56 214 6.0 17.0 0.00 0.01 0.01 80 1006.9
20260505203729 56 237 6.0 17.0 0.00 0.01 0.01 80 1006.9
20260505203701 56 270 6.0 17.0 0.00 0.01 0.01 79 1006.9
20260505203629 56 245 6.0 17.0 0.00 0.01 0.01 79 1007.0
20260505203528 56 273 6.0 17.0 0.00 0.01 0.01 79 1007.0
20260505203428 56 248 7.0 17.0 0.00 0.01 0.01 79 1006.9
20260505203329 56 248 7.0 17.0 0.00 0.01 0.01 79 1006.9
20260505203229 56 227 6.0 17.0 0.00 0.01 0.01 79 1007.0
20260505203200 56 237 6.0 17.0 0.00 0.01 0.01 79 1007.0
20260505203129 56 298 6.0 12.0 0.00 0.01 0.01 79 1007.0
20260505203029 56 257 6.0 12.0 0.00 0.01 0.01 79 1006.9
20260505202929 56 227 6.0 12.0 0.00 0.01 0.01 79 1007.1
20260505202829 56 278 6.0 12.0 0.00 0.01 0.01 79 1007.0
20260505202728 56 250 6.0 12.0 0.00 0.01 0.01 79 1007.0
20260505202700 56 250 6.0 12.0 0.00 0.01 0.01 80 1007.0
20260505202629 56 265 6.0 12.0 0.00 0.01 0.01 80 1007.0
20260505202529 56 269 6.0 12.0 0.00 0.01 0.01 80 1007.0
20260505202432 56 277 6.0 12.0 0.00 0.01 0.01 80 1007.1
20260505202428 56 274 6.0 14.0 0.00 0.01 0.01 80 1007.1
20260505202416 56 249 6.0 14.0 0.00 0.01 0.01 80 1007.1
20260505202129 56 259 6.0 14.0 0.00 0.01 0.01 80 1007.1
20260505202029 56 259 6.0 14.0 0.00 0.01 0.01 80 1007.1
20260505201929 56 244 6.0 14.0 0.00 0.01 0.01 80 1007.2
20260505201830 56 269 6.0 14.0 0.00 0.01 0.01 81 1007.3
20260505201728 57 254 6.0 14.0 0.00 0.01 0.01 81 1007.2
20260505201701 57 250 6.0 14.0 0.00 0.01 0.01 81 1007.2
20260505201629 57 229 6.0 14.0 0.00 0.01 0.01 81 1007.2
20260505201529 57 259 6.0 14.0 0.00 0.01 0.01 81 1007.2
20260505201428 57 269 6.0 14.0 0.00 0.01 0.01 81 1007.2
20260505201328 57 265 6.0 14.0 0.00 0.01 0.01 81 1007.2
20260505201300 57 238 6.0 13.0 0.00 0.01 0.01 81 1007.3
20260505201201 57 239 6.0 13.0 0.00 0.01 0.01 81 1007.3
20260505201128 57 242 6.0 13.0 0.00 0.01 0.01 81 1007.2
20260505201028 57 266 7.0 13.0 0.00 0.01 0.01 81 1007.2
20260505200928 57 278 7.0 19.0 0.00 0.01 0.01 81 1007.2
20260505200830 57 249 8.0 19.0 0.00 0.01 0.01 81 1007.1
20260505200729 57 261 8.0 19.0 0.00 0.01 0.01 80 1007.2
20260505200700 57 272 8.0 19.0 0.00 0.01 0.01 80 1007.2
20260505200629 57 234 8.0 19.0 0.00 0.01 0.01 80 1007.2
20260505200529 57 271 8.0 19.0 0.00 0.01 0.01 81 1007.1
20260505200429 57 237 8.0 19.0 0.00 0.01 0.01 80 1007.1
20260505200329 57 294 8.0 19.0 0.00 0.01 0.01 80 1007.1
20260505200229 57 206 8.0 19.0 0.00 0.01 0.01 80 1007.0
20260505200201 57 244 8.0 19.0 0.00 0.01 0.01 80 1007.0
20260505200129 57 232 8.0 19.0 0.00 0.01 0.01 80 1007.0
20260505200028 57 227 7.0 19.0 0.00 0.01 0.01 79 1007.1
20260505195928 57 289 7.0 16.0 0.00 0.01 0.01 80 1007.1
20260505195828 57 220 7.0 16.0 0.00 0.01 0.01 81 1006.8
20260505195729 57 237 7.0 12.0 0.00 0.01 0.01 81 1007.0
20260505195700 57 250 7.0 12.0 0.00 0.01 0.01 81 1007.0
20260505195629 57 243 7.0 12.0 0.00 0.01 0.01 81 1006.9
20260505195529 57 248 7.0 12.0 0.00 0.01 0.01 81 1006.9
20260505195428 57 242 6.0 12.0 0.00 0.01 0.01 81 1006.9
20260505195328 57 262 7.0 12.0 0.00 0.01 0.01 81 1006.8
20260505195228 57 241 6.0 12.0 0.00 0.01 0.01 81 1006.8
20260505195201 57 267 6.0 12.0 0.00 0.01 0.01 81 1006.8
20260505195129 57 272 6.0 12.0 0.00 0.01 0.01 81 1006.8
20260505195029 57 232 6.0 12.0 0.00 0.01 0.01 81 1006.7
20260505194929 57 236 6.0 12.0 0.00 0.01 0.01 81 1006.7
20260505194829 57 229 6.0 12.0 0.00 0.01 0.01 81 1006.7
20260505194729 57 222 6.0 12.0 0.00 0.01 0.01 81 1006.5
20260505194701 57 209 6.0 13.0 0.00 0.01 0.01 81 1006.5
20260505194629 57 180 6.0 14.0 0.00 0.01 0.01 81 1006.5
20260505194529 57 232 6.0 14.0 0.00 0.01 0.01 80 1006.7
20260505194429 57 240 6.0 14.0 0.00 0.01 0.01 80 1006.5
20260505194329 57 226 6.0 14.0 0.00 0.01 0.01 80 1006.7
20260505194229 57 262 6.0 14.0 0.00 0.01 0.01 80 1006.5
20260505194205 57 250 6.0 14.0 0.00 0.01 0.01 80 1006.5
20260505194129 57 253 6.0 14.0 0.00 0.01 0.01 80 1006.4
20260505194029 57 267 6.0 14.0 0.00 0.01 0.01 80 1006.4
20260505193929 57 211 5.0 14.0 0.00 0.01 0.01 80 1006.4
20260505193828 57 261 5.0 14.0 0.00 0.01 0.01 81 1006.4
20260505193728 57 232 5.0 14.0 0.00 0.01 0.01 81 1006.4
20260505193703 57 205 5.0 14.0 0.00 0.01 0.01 81 1006.4
20260505193629 57 268 5.0 10.0 0.00 0.01 0.01 80 1006.4
20260505193529 56 264 5.0 10.0 0.00 0.01 0.01 81 1006.3
20260505193429 56 244 5.0 10.0 0.00 0.01 0.01 81 1006.3
20260505193329 56 270 5.0 10.0 0.00 0.01 0.01 81 1006.3
20260505193229 56 207 5.0 10.0 0.00 0.01 0.01 81 1006.3
20260505193204 56 221 5.0 10.0 0.00 0.01 0.01 81 1006.3
20260505193128 56 248 5.0 10.0 0.00 0.01 0.01 81 1006.3
20260505193028 56 232 5.0 10.0 0.00 0.01 0.01 82 1006.2
20260505192928 56 252 5.0 10.0 0.00 0.01 0.01 81 1006.2
20260505192924 56 217 4.0 10.0 0.00 0.01 0.01 82 1006.1
20260505192915 56 238 4.0 10.0 0.00 0.01 0.01 81 1006.2
20260505192911 56 245 4.0 10.0 0.00 0.01 0.01 82 1006.1
20260505192629 56 275 4.0 10.0 0.00 0.01 0.01 82 1006.2
20260505192529 56 263 3.0 9.0 0.00 0.01 0.01 82 1006.1
20260505192430 56 236 3.0 9.0 0.00 0.01 0.01 82 1006.1
20260505192330 56 244 3.0 8.0 0.00 0.01 0.01 82 1006.0
20260505192228 56 244 3.0 8.0 0.00 0.01 0.01 82 1006.0
20260505192201 56 269 3.0 8.0 0.00 0.01 0.01 82 1006.0
20260505192149 56 230 1.0 4.0 0.00 0.01 0.01 82 1005.9
20260505192142 56 246 2.0 7.0 0.00 0.01 0.01 82 1006.0
20260505192138 56 253 2.0 7.0 0.00 0.01 0.01 82 1006.0
20260505192134 56 247 2.0 5.0 0.00 0.01 0.01 82 1005.9
20260505191915 56 232 2.0 4.0 0.00 0.01 0.01 82 1005.9
20260505191911 56 231 1.0 4.0 0.00 0.01 0.01 83 1005.9
20260505191629 56 231 1.0 4.0 0.00 0.01 0.01 82 1005.9
20260505191529 56 252 1.0 4.0 0.00 0.01 0.01 82 1005.8
20260505191429 56 252 1.0 4.0 0.00 0.01 0.01 82 1005.8
20260505191329 56 254 1.0 3.0 0.00 0.01 0.01 82 1005.7
20260505191201 56 260 0.0 2.0 0.00 0.01 0.01 82 1005.7
20260505191129 56 260 0.0 2.0 0.00 0.01 0.01 82 1005.7
20260505191028 56 260 0.0 2.0 0.00 0.01 0.01 81 1005.6
20260505190931 56 260 0.0 1.0 0.00 0.01 0.01 81 1005.5
20260505190924 56 260 0.0 2.0 0.00 0.01 0.01 81 1005.7
20260505190917 56 260 0.0 1.0 0.00 0.01 0.01 81 1005.6
20260505190913 56 260 0.0 1.0 0.00 0.01 0.01 81 1005.6
20260505190623 56 260 0.0 1.0 0.00 0.01 0.01 81 1005.5
20260505190521 56 260 0.0 1.0 0.00 0.01 0.01 81 1005.5
20260505190417 56 260 0.0 1.0 0.00 0.01 0.01 81 1005.5
20260505190316 56 260 0.0 1.0 0.00 0.01 0.01 81 1005.5
20260505190201 56 260 0.0 1.0 0.00 0.01 0.01 81 1005.5
20260505190115 56 260 0.0 1.0 0.00 0.01 0.01 81 1005.5
20260505190014 56 260 0.0 1.0 0.00 0.01 0.01 81 1005.5
20260505185921 56 260 0.0 1.0 0.00 0.01 0.01 81 1005.5
20260505185917 56 260 0.0 3.0 0.00 0.02 0.01 81 1005.5
20260505185913 56 260 1.0 3.0 0.00 0.02 0.01 81 1005.5
20260505185609 57 260 1.0 3.0 0.00 0.02 0.01 81 1005.5
20260505185507 56 260 1.0 3.0 0.00 0.02 0.01 81 1005.5
20260505185403 56 260 1.0 3.0 0.00 0.02 0.01 81 1005.5
20260505185305 57 260 2.0 4.0 0.00 0.02 0.01 80 1005.4
20260505185201 57 260 2.0 6.0 0.00 0.02 0.01 81 1005.5
20260505185102 57 260 2.0 6.0 0.00 0.02 0.01 81 1005.5
20260505185003 57 260 2.0 6.0 0.00 0.03 0.01 81 1005.5
20260505184903 57 260 3.0 6.0 0.00 0.03 0.01 81 1005.5
20260505184803 57 260 3.0 6.0 0.00 0.04 0.01 80 1005.5
20260505184701 57 265 3.0 6.0 0.00 0.04 0.01 80 1005.5
20260505184603 57 265 3.0 6.0 0.00 0.05 0.01 80 1005.6
20260505184503 57 264 3.0 6.0 0.00 0.06 0.01 80 1005.6
20260505184403 57 264 3.0 6.0 0.00 0.06 0.01 80 1005.6
20260505184302 57 265 3.0 6.0 0.00 0.06 0.01 80 1005.6
20260505184201 57 264 3.0 7.0 0.00 0.06 0.01 79 1005.5
20260505184102 57 268 3.0 7.0 0.00 0.06 0.01 79 1005.5
20260505184002 57 268 3.0 7.0 0.00 0.06 0.01 79 1005.5
20260505183903 57 267 3.0 7.0 0.00 0.06 0.01 79 1005.5
20260505183803 57 261 3.0 7.0 0.00 0.06 0.01 79 1005.5
20260505183701 57 261 3.0 7.0 0.00 0.06 0.01 79 1005.5
20260505183603 57 249 3.0 7.0 0.00 0.06 0.01 79 1005.4
20260505183503 57 247 3.0 7.0 0.00 0.06 0.01 79 1005.5
20260505183403 57 248 3.0 7.0 0.00 0.06 0.01 79 1005.5
20260505183303 57 245 3.0 7.0 0.00 0.06 0.01 79 1005.5
20260505183205 57 256 3.0 6.0 0.00 0.06 0.01 79 1005.5
20260505183200 57 257 3.0 6.0 0.00 0.06 0.01 79 1005.5
20260505183103 57 246 3.0 6.0 0.00 0.06 0.01 79 1005.4
20260505183003 57 250 3.0 6.0 0.00 0.06 0.01 78 1005.4
20260505182903 57 250 3.0 6.0 0.00 0.06 0.01 78 1005.3
20260505182803 57 244 3.0 6.0 0.00 0.06 0.01 78 1005.3
20260505182700 57 259 3.0 6.0 0.00 0.06 0.01 78 1005.3
20260505182601 57 259 3.0 6.0 0.00 0.06 0.01 78 1005.3
20260505182500 57 259 3.0 6.0 0.00 0.06 0.01 78 1005.3
20260505182400 57 257 3.0 6.0 0.00 0.06 0.01 78 1005.3
20260505182300 57 257 3.0 6.0 0.00 0.06 0.01 78 1005.3
20260505182201 57 255 3.0 6.0 0.00 0.06 0.01 78 1005.3
20260505182100 57 257 3.0 6.0 0.00 0.06 0.01 78 1005.2
20260505182000 58 260 3.0 6.0 0.00 0.06 0.01 78 1005.2
20260505181900 58 261 3.0 6.0 0.00 0.06 0.01 78 1005.2
20260505181800 58 256 3.0 6.0 0.00 0.06 0.01 78 1005.2
20260505181700 58 257 2.0 4.0 0.00 0.06 0.01 79 1005.2
20260505181601 58 256 2.0 4.0 0.00 0.06 0.01 79 1005.2
20260505181501 58 257 2.0 4.0 0.00 0.06 0.01 79 1005.1
20260505181401 58 254 2.0 4.0 0.00 0.06 0.01 79 1005.2
20260505181301 58 252 2.0 4.0 0.00 0.06 0.01 79 1005.1
20260505181200 58 251 2.0 4.0 0.00 0.06 0.01 79 1005.2
20260505181100 58 252 2.0 4.0 0.00 0.06 0.01 79 1005.1
20260505181001 58 252 3.0 4.0 0.00 0.06 0.01 79 1005.1
20260505180901 58 252 3.0 4.0 0.00 0.06 0.01 79 1005.1
20260505180801 58 252 3.0 4.0 0.00 0.06 0.01 79 1005.1
20260505180700 58 251 3.0 4.0 0.00 0.06 0.01 79 1005.1
20260505180600 58 251 3.0 4.0 0.00 0.06 0.01 79 1005.1
20260505180500 58 255 2.0 4.0 0.00 0.06 0.01 79 1005.0
20260505180400 58 255 2.0 4.0 0.01 0.06 0.01 79 1005.0
20260505180302 58 254 2.0 4.0 0.01 0.06 0.01 79 1005.0
20260505180201 58 254 2.0 4.0 0.01 0.06 0.01 79 1005.0
20260505180100 58 252 2.0 4.0 0.01 0.06 0.01 79 1005.0
20260505180001 58 252 2.0 3.0 0.01 0.06 0.01 79 1004.9
20260505175901 58 252 2.0 3.0 0.01 0.06 0.01 79 1004.9
20260505175801 58 238 2.0 3.0 0.01 0.06 0.01 78 1004.9
20260505175700 58 236 2.0 3.0 0.01 0.06 0.01 79 1004.9
20260505175600 58 236 2.0 3.0 0.01 0.06 0.01 79 1004.9
20260505175500 58 236 2.0 3.0 0.01 0.06 0.01 79 1004.9
20260505175400 58 236 2.0 4.0 0.01 0.06 0.01 79 1004.7
20260505175300 58 236 2.0 4.0 0.01 0.06 0.01 79 1004.7
20260505175201 58 236 2.0 4.0 0.01 0.06 0.01 79 1004.7
20260505175105 58 236 2.0 4.0 0.01 0.06 0.01 79 1004.7
20260505175001 58 236 2.0 4.0 0.01 0.06 0.01 79 1004.7
20260505174901 58 236 2.0 4.0 0.01 0.06 0.01 79 1004.7
20260505174800 58 236 2.0 4.0 0.01 0.06 0.01 79 1004.7
20260505174700 58 236 2.0 4.0 0.01 0.06 0.01 79 1004.7
20260505174601 58 236 2.0 4.0 0.01 0.06 0.01 79 1004.7
20260505174502 59 236 2.0 4.0 0.01 0.06 0.01 79 1004.9
20260505174401 59 236 2.0 4.0 0.01 0.06 0.01 79 1004.7
20260505174300 59 236 2.0 4.0 0.01 0.06 0.01 79 1004.7
20260505174200 59 269 2.0 4.0 0.01 0.06 0.01 80 1004.7
20260505174100 59 233 2.0 5.0 0.01 0.06 0.01 79 1004.6
20260505174000 59 257 2.0 5.0 0.01 0.06 0.01 80 1004.6
20260505173920 59 259 2.0 5.0 0.01 0.06 0.01 80 1004.6
20260505173916 59 259 2.0 5.0 0.01 0.06 0.01 80 1004.5
20260505173912 59 259 2.0 5.0 0.01 0.06 0.01 79 1004.5
20260505173600 59 259 2.0 5.0 0.01 0.06 0.01 79 1004.5
20260505173501 59 259 2.0 5.0 0.01 0.06 0.01 79 1004.5
20260505173400 59 254 2.0 5.0 0.01 0.06 0.01 78 1004.5
20260505173300 59 252 2.0 5.0 0.01 0.06 0.01 78 1004.5
20260505173200 59 250 2.0 5.0 0.01 0.06 0.01 77 1004.5
20260505173100 59 271 2.0 4.0 0.01 0.06 0.01 77 1004.4
20260505173001 59 273 1.0 4.0 0.01 0.06 0.01 76 1004.4
20260505172901 59 290 1.0 4.0 0.01 0.06 0.01 76 1004.3
20260505172800 59 302 1.0 4.0 0.01 0.06 0.01 76 1004.3
20260505172700 59 333 1.0 4.0 0.01 0.06 0.01 76 1004.2
20260505172600 59 29 1.0 4.0 0.01 0.06 0.01 77 1004.2
20260505172500 59 34 1.0 4.0 0.01 0.06 0.01 77 1004.2
20260505172400 59 35 1.0 4.0 0.01 0.06 0.01 77 1004.1
20260505172300 59 35 1.0 4.0 0.01 0.06 0.01 78 1004.1
20260505172201 59 35 1.0 4.0 0.01 0.06 0.01 78 1004.1
20260505172101 59 35 2.0 8.0 0.01 0.06 0.01 77 1004.1
20260505172001 59 35 2.0 8.0 0.01 0.06 0.01 77 1004.1
20260505171901 59 35 2.0 8.0 0.01 0.06 0.01 76 1004.0
20260505171800 59 35 2.0 8.0 0.01 0.06 0.01 77 1004.0
20260505171700 59 63 2.0 8.0 0.01 0.06 0.01 77 1004.0
20260505171600 59 55 3.0 8.0 0.01 0.06 0.01 78 1004.0
20260505171501 59 55 3.0 8.0 0.01 0.06 0.01 78 1004.0
20260505171401 59 37 3.0 10.0 0.01 0.06 0.01 77 1004.0
20260505171301 59 342 4.0 10.0 0.01 0.06 0.01 76 1004.0
20260505171202 59 15 4.0 10.0 0.01 0.06 0.01 76 1004.0
20260505171158 59 15 4.0 10.0 0.01 0.06 0.01 76 1004.0
20260505171058 59 43 4.0 10.0 0.01 0.06 0.01 75 1004.0
20260505170959 59 336 4.0 10.0 0.01 0.06 0.01 75 1004.1
20260505170859 59 15 4.0 10.0 0.01 0.06 0.01 76 1004.0
20260505170757 60 18 4.0 10.0 0.01 0.06 0.01 75 1004.0
20260505170700 60 21 4.0 10.0 0.01 0.06 0.01 76 1004.0
20260505170657 60 33 4.0 10.0 0.01 0.06 0.01 76 1004.0
20260505170556 60 40 4.0 10.0 0.01 0.06 0.01 76 1004.2
20260505170457 60 5 3.0 10.0 0.01 0.06 0.00 75 1004.3
20260505170356 60 342 3.0 8.0 0.00 0.06 0.00 76 1004.3
20260505170257 60 348 3.0 6.0 0.00 0.06 0.00 75 1004.4
20260505170200 60 343 3.0 6.0 0.00 0.06 0.00 74 1004.5
20260505170156 60 344 3.0 6.0 0.00 0.06 0.00 74 1004.5
20260505170055 60 333 2.0 6.0 0.00 0.06 0.00 73 1004.6
20260505165951 60 319 2.0 6.0 0.00 0.06 0.00 73 1004.6
20260505165850 60 323 2.0 5.0 0.00 0.06 0.00 72 1004.7
20260505165750 60 314 2.0 5.0 0.00 0.06 0.00 72 1004.9
20260505165701 60 313 2.0 5.0 0.00 0.06 0.00 72 1004.9
20260505165650 60 313 2.0 5.0 0.00 0.06 0.00 72 1004.9
20260505165551 60 303 3.0 5.0 0.00 0.06 0.00 72 1004.9
20260505165446 60 302 3.0 5.0 0.00 0.06 0.00 72 1004.9
20260505165345 60 302 3.0 5.0 0.00 0.06 0.00 72 1004.9
20260505165245 61 292 3.0 5.0 0.00 0.06 0.00 71 1004.9
20260505165201 61 293 3.0 6.0 0.00 0.06 0.00 71 1004.9
20260505165145 61 294 3.0 6.0 0.00 0.06 0.00 70 1005.0
20260505165043 61 299 3.0 6.0 0.00 0.06 0.00 71 1005.0
20260505164941 61 300 3.0 6.0 0.00 0.06 0.00 71 1005.0
20260505164839 61 304 3.0 6.0 0.00 0.06 0.00 71 1005.0
20260505164739 61 290 3.0 6.0 0.00 0.06 0.00 71 1005.0
20260505164701 61 290 3.0 6.0 0.00 0.06 0.00 71 1005.0
20260505164638 61 311 3.0 6.0 0.00 0.06 0.00 71 1005.0
20260505164537 61 292 3.0 6.0 0.00 0.06 0.00 71 1005.0
20260505164432 61 304 3.0 7.0 0.00 0.06 0.00 71 1005.0
20260505164332 61 298 3.0 7.0 0.00 0.06 0.00 70 1005.0
20260505164232 61 281 3.0 7.0 0.00 0.06 0.00 69 1005.0
20260505164201 61 302 3.0 7.0 0.00 0.06 0.00 68 1005.0
20260505164133 61 291 3.0 7.0 0.00 0.06 0.00 68 1005.1
20260505164035 61 295 3.0 7.0 0.00 0.06 0.00 68 1005.1
20260505163932 61 277 3.0 7.0 0.00 0.06 0.00 67 1005.1
20260505163832 61 299 3.0 7.0 0.00 0.06 0.00 67 1005.1
20260505163733 61 265 3.0 7.0 0.00 0.06 0.00 66 1005.0
20260505163700 61 290 3.0 7.0 0.00 0.06 0.00 66 1005.0
20260505163634 61 290 3.0 7.0 0.00 0.06 0.00 67 1005.0
20260505163530 61 288 3.0 7.0 0.00 0.06 0.00 66 1005.0
20260505163430 61 278 3.0 5.0 0.00 0.06 0.00 67 1005.0
20260505163330 61 297 3.0 6.0 0.00 0.06 0.00 67 1005.0
20260505163230 61 304 3.0 6.0 0.00 0.06 0.00 67 1005.0
20260505163201 61 294 3.0 6.0 0.00 0.06 0.00 67 1005.0
20260505163130 61 298 3.0 6.0 0.00 0.06 0.00 67 1005.0
20260505163030 61 295 3.0 6.0 0.00 0.06 0.00 66 1005.0
20260505162929 61 289 3.0 6.0 0.00 0.06 0.00 66 1004.9
20260505162829 61 292 3.0 6.0 0.00 0.06 0.00 66 1005.0
20260505162729 61 281 3.0 6.0 0.00 0.06 0.00 66 1004.9
20260505162655 61 292 3.0 6.0 0.00 0.06 0.00 65 1005.0
20260505162629 61 319 3.0 6.0 0.00 0.06 0.00 65 1005.0
20260505162529 61 303 3.0 6.0 0.00 0.06 0.00 66 1004.9
20260505162429 61 336 3.0 7.0 0.00 0.06 0.00 65 1004.9
20260505162329 61 304 3.0 8.0 0.00 0.06 0.00 66 1004.9
20260505162229 61 306 3.0 8.0 0.00 0.06 0.00 66 1004.9
20260505162150 62 298 3.0 8.0 0.00 0.06 0.00 66 1005.0
20260505162130 62 292 3.0 8.0 0.00 0.06 0.00 66 1005.0
20260505162028 62 294 3.0 8.0 0.00 0.06 0.00 65 1005.0
20260505161928 62 298 3.0 8.0 0.00 0.06 0.00 65 1005.0
20260505161826 62 288 3.0 8.0 0.00 0.06 0.00 66 1005.0
20260505161723 62 297 3.0 8.0 0.00 0.06 0.00 67 1005.0
20260505161644 62 287 3.0 8.0 0.00 0.06 0.00 67 1005.1
20260505161622 62 292 3.0 8.0 0.00 0.06 0.00 67 1005.1
20260505161522 62 296 4.0 8.0 0.00 0.06 0.00 67 1005.1
20260505161421 62 317 4.0 8.0 0.00 0.06 0.00 68 1005.1
20260505161320 62 300 4.0 7.0 0.00 0.06 0.00 68 1005.1
20260505161217 62 304 4.0 8.0 0.00 0.06 0.00 68 1005.1
20260505161138 62 295 4.0 8.0 0.00 0.06 0.00 67 1005.1
20260505161114 62 322 4.0 9.0 0.00 0.06 0.00 67 1005.1
20260505161014 62 291 4.0 9.0 0.00 0.06 0.00 67 1005.1
20260505160914 62 267 4.0 9.0 0.00 0.06 0.00 68 1005.1
20260505160854 62 308 4.0 9.0 0.00 0.06 0.00 68 1005.1
20260505160847 62 299 4.0 9.0 0.00 0.06 0.00 68 1005.1
20260505160843 62 273 4.0 9.0 0.00 0.06 0.00 68 1005.1
20260505160611 62 294 4.0 9.0 0.00 0.06 0.00 68 1005.1
20260505160510 62 268 4.0 9.0 0.00 0.06 0.00 68 1005.2
20260505160410 62 304 4.0 9.0 0.00 0.06 0.00 68 1005.1
20260505160307 62 296 4.0 9.0 0.00 0.06 0.00 68 1005.1
20260505160204 62 312 4.0 9.0 0.00 0.06 0.00 68 1005.1
20260505160130 62 288 4.0 9.0 0.00 0.06 0.00 68 1005.1
20260505153352 63 288 5.0 10.0 0.00 0.06 0.00 66 1004.9
20260505153250 63 291 5.0 10.0 0.00 0.06 0.00 66 1004.7
20260505153150 63 302 6.0 10.0 0.00 0.06 0.00 66 1004.9
20260505153130 63 285 6.0 10.0 0.00 0.06 0.00 66 1004.9
20260505153050 63 294 6.0 10.0 0.00 0.06 0.00 66 1004.9
20260505152944 63 312 6.0 11.0 0.00 0.06 0.00 65 1004.7
20260505152845 63 266 6.0 11.0 0.00 0.06 0.00 65 1004.9
20260505152744 63 321 6.0 11.0 0.00 0.06 0.00 65 1004.9
20260505152644 63 314 6.0 11.0 0.00 0.06 0.00 65 1004.7
20260505152630 63 319 6.0 11.0 0.00 0.06 0.00 65 1004.7
20260505152543 63 283 6.0 11.0 0.00 0.06 0.00 65 1004.7
20260505152438 63 309 6.0 11.0 0.00 0.06 0.00 64 1004.7
20260505152354 63 323 5.0 11.0 0.00 0.06 0.00 64 1005.0
20260505152350 63 294 6.0 11.0 0.00 0.06 0.00 64 1004.7
20260505152346 63 292 5.0 11.0 0.00 0.06 0.00 64 1004.9
20260505152342 63 296 5.0 11.0 0.00 0.06 0.00 64 1005.0
20260505152123 63 292 4.0 9.0 0.00 0.06 0.00 64 1004.9
20260505152111 63 301 5.0 10.0 0.00 0.06 0.00 64 1004.9
20260505151849 63 295 5.0 9.0 0.00 0.06 0.00 64 1004.9
20260505151845 63 344 4.0 9.0 0.00 0.06 0.00 65 1004.9
20260505151841 63 270 4.0 9.0 0.00 0.06 0.00 64 1004.9
20260505151535 63 290 4.0 9.0 0.00 0.06 0.00 65 1004.9
20260505151434 63 298 4.0 9.0 0.00 0.06 0.00 65 1004.9
20260505151334 63 296 4.0 9.0 0.00 0.06 0.00 65 1004.9
20260505151234 63 292 4.0 9.0 0.00 0.06 0.00 64 1004.9
20260505151134 63 314 4.0 9.0 0.00 0.06 0.00 64 1004.9
20260505151130 63 307 4.0 9.0 0.00 0.06 0.00 64 1004.9
20260505151034 63 319 4.0 9.0 0.00 0.06 0.00 64 1004.9
20260505150934 63 326 4.0 9.0 0.00 0.06 0.00 64 1004.9
20260505150832 62 321 4.0 9.0 0.00 0.06 0.00 65 1004.9
20260505150732 62 313 4.0 9.0 0.00 0.06 0.00 64 1004.9
20260505150635 62 312 4.0 9.0 0.00 0.06 0.00 64 1004.9
20260505150630 62 303 4.0 9.0 0.00 0.06 0.00 64 1004.9
20260505150530 62 296 4.0 9.0 0.00 0.06 0.00 65 1004.9
20260505150432 62 292 3.0 9.0 0.00 0.06 0.00 65 1004.9
20260505150330 62 320 3.0 8.0 0.00 0.06 0.00 65 1004.9
20260505150230 62 298 3.0 8.0 0.00 0.06 0.00 65 1004.9
20260505150129 62 326 3.0 6.0 0.00 0.06 0.00 65 1004.9
20260505140629 63 309 4.0 10.0 0.00 0.06 0.00 61 1004.9
20260505140549 63 303 5.0 10.0 0.00 0.06 0.00 61 1005.0
20260505140444 63 298 5.0 10.0 0.00 0.06 0.00 61 1004.9
20260505140343 63 290 5.0 10.0 0.00 0.06 0.00 61 1004.9
20260505140244 63 331 5.0 10.0 0.00 0.06 0.00 61 1004.9
20260505140144 63 286 5.0 10.0 0.00 0.06 0.00 61 1004.9
20260505140129 63 304 5.0 10.0 0.00 0.06 0.00 61 1004.9
20260505130302 65 288 6.0 12.0 0.00 0.06 0.00 67 1005.1
20260505130201 65 317 7.0 13.0 0.00 0.06 0.00 66 1005.1
20260505130114 65 318 7.0 13.0 0.00 0.06 0.00 65 1005.1
20260505125001 65 283 7.0 13.0 0.00 0.06 0.00 62 1005.1
20260505124901 65 309 7.0 13.0 0.00 0.06 0.00 62 1005.1
20260505124800 65 240 7.0 13.0 0.00 0.06 0.00 62 1005.1
20260505124700 65 310 7.0 12.0 0.00 0.06 0.00 63 1005.0
20260505124607 65 342 7.0 12.0 0.00 0.06 0.00 62 1005.1
20260505124600 65 289 7.0 12.0 0.00 0.06 0.00 62 1005.1
20260505124500 65 294 8.0 12.0 0.00 0.06 0.00 62 1005.0
20260505124401 65 279 8.0 12.0 0.00 0.06 0.00 61 1005.1
20260505124338 65 257 7.0 12.0 0.00 0.06 0.00 58 1005.1
20260505124322 65 270 7.0 12.0 0.00 0.06 0.00 60 1005.2
20260505124318 65 268 7.0 12.0 0.00 0.06 0.00 59 1005.1
20260505124100 65 264 7.0 12.0 0.00 0.06 0.00 58 1005.1
20260505124000 65 277 6.0 12.0 0.00 0.06 0.00 58 1005.1
20260505123900 65 278 6.0 12.0 0.00 0.06 0.00 57 1005.1
20260505123800 66 289 6.0 12.0 0.00 0.06 0.00 57 1005.1
20260505123700 66 280 6.0 12.0 0.00 0.06 0.00 57 1005.2
20260505123606 66 273 6.0 12.0 0.00 0.06 0.00 58 1005.1
20260505123600 66 269 6.0 12.0 0.00 0.06 0.00 58 1005.1
20260505123501 66 253 5.0 11.0 0.00 0.06 0.00 59 1005.1
20260505123402 66 319 5.0 11.0 0.00 0.06 0.00 59 1005.1
20260505123301 66 277 5.0 11.0 0.00 0.06 0.00 58 1005.1
20260505123201 66 254 6.0 11.0 0.00 0.06 0.00 60 1005.1
20260505123102 66 298 6.0 11.0 0.00 0.06 0.00 59 1005.1
20260505123001 66 263 6.0 11.0 0.00 0.06 0.00 59 1005.1
20260505122901 66 261 6.0 11.0 0.00 0.06 0.00 58 1005.2
20260505122801 66 266 6.0 11.0 0.00 0.06 0.00 58 1005.2
20260505122701 66 265 5.0 10.0 0.00 0.06 0.00 60 1005.3
20260505122605 66 242 5.0 10.0 0.00 0.06 0.00 59 1005.3
20260505122601 66 227 5.0 10.0 0.00 0.06 0.00 59 1005.3
20260505122501 66 238 5.0 10.0 0.00 0.06 0.00 59 1005.3
20260505122401 66 269 5.0 10.0 0.00 0.06 0.00 60 1005.3
20260505122300 67 220 5.0 10.0 0.00 0.06 0.00 59 1005.3
20260505122200 67 238 5.0 10.0 0.00 0.06 0.00 57 1005.4
20260505122101 67 240 4.0 10.0 0.00 0.06 0.00 56 1005.3
20260505122001 67 231 4.0 10.0 0.00 0.06 0.00 54 1005.4
20260505121901 67 279 4.0 10.0 0.00 0.06 0.00 53 1005.3
20260505121801 67 268 4.0 10.0 0.00 0.06 0.00 54 1005.4
20260505121701 67 263 4.0 10.0 0.00 0.06 0.00 56 1005.5
20260505121604 67 236 4.0 10.0 0.00 0.06 0.00 58 1005.5
20260505121556 67 229 4.0 10.0 0.00 0.06 0.00 58 1005.5
20260505121456 67 241 4.0 10.0 0.00 0.06 0.00 59 1005.4
20260505121355 67 288 4.0 10.0 0.00 0.06 0.00 59 1005.4
20260505121256 67 219 4.0 10.0 0.00 0.06 0.00 59 1005.4
20260505121156 67 257 4.0 10.0 0.00 0.06 0.00 58 1005.3
20260505121104 67 252 4.0 10.0 0.00 0.06 0.00 58 1005.3
20260505121055 67 261 4.0 10.0 0.00 0.06 0.00 58 1005.3
20260505120954 67 226 4.0 10.0 0.00 0.06 0.00 57 1005.3
20260505120943 67 269 4.0 8.0 0.00 0.06 0.00 56 1005.3
20260505120937 67 250 4.0 8.0 0.00 0.06 0.00 57 1005.3
20260505120933 67 257 4.0 10.0 0.00 0.06 0.00 57 1005.4
20260505120925 67 263 4.0 7.0 0.00 0.06 0.00 56 1005.3
20260505120920 67 268 4.0 8.0 0.00 0.06 0.00 56 1005.3
20260505120705 67 269 4.0 8.0 0.00 0.06 0.00 56 1005.4
20260505120353 67 256 4.0 8.0 0.00 0.06 0.00 56 1005.3
20260505120251 67 275 5.0 8.0 0.00 0.06 0.00 56 1005.3
20260505120151 67 303 5.0 9.0 0.00 0.06 0.00 55 1005.3
20260505120052 67 261 5.0 9.0 0.00 0.06 0.00 56 1005.3
20260505115952 67 309 5.0 9.0 0.00 0.06 0.00 56 1005.3
20260505115852 67 249 5.0 9.0 0.00 0.06 0.00 55 1005.3
20260505115752 68 260 5.0 9.0 0.00 0.06 0.00 55 1005.3
20260505115652 68 234 4.0 9.0 0.00 0.06 0.00 56 1005.3
20260505115601 68 243 4.0 9.0 0.00 0.06 0.00 56 1005.3
20260505115552 68 246 4.0 9.0 0.00 0.06 0.00 56 1005.2
20260505115451 68 266 4.0 9.0 0.00 0.06 0.00 55 1005.3
20260505115347 68 302 4.0 9.0 0.00 0.06 0.00 56 1005.3
20260505115245 68 259 4.0 9.0 0.00 0.06 0.00 58 1005.2
20260505115146 68 256 4.0 9.0 0.00 0.06 0.00 57 1005.3
20260505115101 68 269 4.0 9.0 0.00 0.06 0.00 56 1005.3
20260505115046 68 259 4.0 9.0 0.00 0.06 0.00 56 1005.2
20260505114946 68 271 4.0 9.0 0.00 0.06 0.00 57 1005.3
20260505114842 68 295 5.0 9.0 0.00 0.06 0.00 57 1005.3
20260505114742 68 272 5.0 9.0 0.00 0.06 0.00 56 1005.2
20260505114642 68 236 5.0 9.0 0.00 0.06 0.00 57 1005.2
20260505114601 68 230 5.0 9.0 0.00 0.06 0.00 56 1005.2
20260505114539 68 277 5.0 9.0 0.00 0.06 0.00 56 1005.3
20260505114437 68 250 5.0 9.0 0.00 0.06 0.00 55 1005.2
20260505114333 68 267 5.0 8.0 0.00 0.06 0.00 55 1005.2
20260505114232 68 243 5.0 8.0 0.00 0.06 0.00 56 1005.2
20260505114132 68 276 5.0 9.0 0.00 0.06 0.00 56 1005.2
20260505114101 68 272 5.0 9.0 0.00 0.06 0.00 56 1005.2
20260505114031 68 229 5.0 9.0 0.00 0.06 0.00 56 1005.2
20260505113931 68 247 5.0 9.0 0.00 0.06 0.00 56 1005.2
20260505113830 68 262 5.0 9.0 0.00 0.06 0.00 56 1005.2
20260505113729 68 270 5.0 9.0 0.00 0.06 0.00 54 1005.1
20260505113629 68 301 5.0 9.0 0.00 0.06 0.00 55 1005.2
20260505113601 68 306 5.0 9.0 0.00 0.06 0.00 55 1005.2
20260505113530 68 267 5.0 9.0 0.00 0.06 0.00 54 1005.2
20260505113430 68 305 5.0 9.0 0.00 0.06 0.00 54 1005.1
20260505113329 68 319 5.0 9.0 0.00 0.06 0.00 53 1005.1
20260505113229 68 262 4.0 9.0 0.00 0.06 0.00 53 1005.1
20260505113129 68 246 4.0 9.0 0.00 0.06 0.00 53 1005.1
20260505113101 68 290 4.0 9.0 0.00 0.06 0.00 53 1005.1
20260505113029 68 263 4.0 9.0 0.00 0.06 0.00 54 1005.1
20260505112929 68 293 4.0 9.0 0.00 0.06 0.00 54 1005.0
20260505112829 68 271 4.0 8.0 0.00 0.06 0.00 54 1005.1
20260505112729 68 261 4.0 8.0 0.00 0.06 0.00 55 1005.1
20260505112628 68 283 3.0 8.0 0.00 0.06 0.00 55 1005.1
20260505112601 68 266 3.0 8.0 0.00 0.06 0.00 56 1005.1
20260505112527 68 279 3.0 7.0 0.00 0.06 0.00 55 1005.1
20260505112427 69 298 3.0 7.0 0.00 0.06 0.00 55 1005.1
20260505112327 69 333 3.0 7.0 0.00 0.06 0.00 54 1005.1
20260505112227 69 298 3.0 7.0 0.00 0.06 0.00 55 1005.1
20260505112122 69 292 3.0 9.0 0.00 0.06 0.00 55 1005.1
20260505112102 69 304 3.0 9.0 0.00 0.06 0.00 55 1005.1
20260505112022 69 292 3.0 9.0 0.00 0.06 0.00 54 1005.1
20260505111922 69 319 3.0 9.0 0.00 0.06 0.00 54 1005.1
20260505111822 69 319 3.0 9.0 0.00 0.06 0.00 55 1005.1
20260505111720 69 305 3.0 9.0 0.00 0.06 0.00 55 1005.1
20260505111613 69 309 4.0 9.0 0.00 0.06 0.00 55 1005.1
20260505111601 69 309 4.0 9.0 0.00 0.06 0.00 54 1005.1
20260505111513 69 314 4.0 9.0 0.00 0.06 0.00 55 1005.1
20260505111414 69 333 4.0 9.0 0.00 0.06 0.00 55 1005.1
20260505111314 69 342 4.0 9.0 0.00 0.06 0.00 56 1005.1
20260505111213 69 348 4.0 9.0 0.00 0.06 0.00 56 1005.1
20260505111113 69 305 4.0 8.0 0.00 0.06 0.00 57 1005.1
20260505111101 69 308 4.0 8.0 0.00 0.06 0.00 57 1005.1
20260505111014 69 303 4.0 8.0 0.00 0.06 0.00 57 1005.1
20260505110914 69 263 4.0 8.0 0.00 0.06 0.00 57 1005.1
20260505110814 69 264 4.0 8.0 0.00 0.06 0.00 58 1005.1
20260505110714 69 272 4.0 8.0 0.00 0.06 0.00 57 1005.1
20260505110613 69 265 4.0 8.0 0.00 0.06 0.00 57 1005.1
20260505110601 69 278 4.0 8.0 0.00 0.06 0.00 57 1005.1
20260505110513 69 264 4.0 8.0 0.00 0.06 0.00 57 1005.0
20260505110410 69 263 4.0 8.0 0.00 0.06 0.00 60 1005.0
20260505110310 69 260 4.0 8.0 0.00 0.06 0.00 60 1005.1
20260505110210 69 304 4.0 8.0 0.00 0.06 0.00 60 1005.1
20260505110110 69 312 4.0 8.0 0.00 0.06 0.00 60 1005.1
20260505102201 66 148 1.0 3.0 0.00 0.06 0.00 61 1005.3
20260505102101 66 148 1.0 3.0 0.00 0.06 0.00 62 1005.3
20260505102001 66 148 1.0 3.0 0.00 0.06 0.00 58 1005.3
20260505101901 66 148 1.0 5.0 0.00 0.06 0.00 57 1005.2
20260505101825 66 148 1.0 5.0 0.00 0.06 0.00 58 1005.3
20260505101816 66 148 1.0 5.0 0.00 0.06 0.00 56 1005.2
20260505101812 66 148 1.0 5.0 0.00 0.06 0.00 59 1005.2
20260505101500 66 148 1.0 5.0 0.00 0.06 0.00 56 1005.3
20260505101400 66 148 1.0 5.0 0.00 0.06 0.00 56 1005.3
20260505101300 66 148 2.0 5.0 0.00 0.06 0.00 57 1005.3
20260505101200 66 139 2.0 5.0 0.00 0.06 0.00 56 1005.2
20260505101101 66 142 2.0 5.0 0.00 0.06 0.00 57 1005.2
20260505101001 66 143 2.0 5.0 0.00 0.06 0.00 57 1005.2
20260505100902 66 144 2.0 4.0 0.00 0.06 0.00 57 1005.2
20260505100801 66 144 2.0 4.0 0.00 0.06 0.00 57 1005.2
20260505100659 66 144 2.0 4.0 0.00 0.06 0.00 57 1005.2
20260505100603 66 146 2.0 4.0 0.00 0.06 0.00 56 1005.3
20260505100559 66 146 2.0 4.0 0.00 0.06 0.00 56 1005.3
20260505100500 66 147 2.0 4.0 0.00 0.06 0.00 56 1005.3
20260505100400 66 148 2.0 4.0 0.00 0.06 0.00 58 1005.3
20260505100300 66 192 2.0 4.0 0.00 0.06 0.00 61 1005.3
20260505100200 66 192 2.0 4.0 0.00 0.06 0.00 59 1005.4
20260505100059 66 198 3.0 6.0 0.00 0.06 0.00 59 1005.4
20260505095959 66 198 3.0 6.0 0.00 0.06 0.00 58 1005.4
20260505095900 66 200 3.0 6.0 0.00 0.06 0.00 58 1005.4
20260505095800 66 172 3.0 6.0 0.00 0.06 0.00 61 1005.4
20260505095700 66 196 3.0 6.0 0.00 0.06 0.00 60 1005.5
20260505095604 66 147 3.0 6.0 0.00 0.06 0.00 62 1005.5
20260505095600 66 147 3.0 6.0 0.00 0.06 0.00 62 1005.5
20260505095459 66 182 3.0 6.0 0.00 0.06 0.00 61 1005.5
20260505095359 66 182 3.0 6.0 0.00 0.06 0.00 62 1005.5
20260505095259 66 209 3.0 6.0 0.00 0.06 0.00 63 1005.4
20260505095203 66 200 3.0 6.0 0.00 0.06 0.00 63 1005.5
20260505095104 66 194 2.0 6.0 0.00 0.06 0.00 62 1005.5
20260505095100 66 194 2.0 6.0 0.00 0.06 0.00 62 1005.5
20260505095000 66 198 2.0 6.0 0.00 0.06 0.00 61 1005.5
20260505094900 66 194 2.0 6.0 0.00 0.06 0.00 63 1005.5
20260505094755 66 192 2.0 6.0 0.00 0.06 0.00 63 1005.5
20260505094656 65 122 2.0 6.0 0.00 0.06 0.00 64 1005.5
20260505094601 65 122 2.0 6.0 0.00 0.06 0.00 63 1005.5
20260505094555 65 122 2.0 6.0 0.00 0.06 0.00 63 1005.5
20260505094455 65 121 2.0 6.0 0.00 0.06 0.00 65 1005.5
20260505094355 65 118 2.0 6.0 0.00 0.06 0.00 61 1005.5
20260505094255 65 139 1.0 6.0 0.00 0.06 0.00 62 1005.5
20260505094200 65 120 1.0 4.0 0.00 0.06 0.00 63 1005.5
20260505094103 65 192 1.0 4.0 0.00 0.06 0.00 62 1005.5
20260505094056 65 192 1.0 4.0 0.00 0.06 0.00 62 1005.5
20260505093956 65 192 1.0 4.0 0.00 0.06 0.00 61 1005.5
20260505093856 65 142 1.0 4.0 0.00 0.06 0.00 64 1005.5
20260505093755 65 142 1.0 4.0 0.00 0.06 0.00 66 1005.5
20260505093658 65 141 1.0 4.0 0.00 0.06 0.00 65 1005.5
20260505093601 64 144 1.0 4.0 0.00 0.06 0.00 65 1005.5
20260505093553 64 144 1.0 4.0 0.00 0.06 0.00 65 1005.5
20260505093452 64 176 1.0 6.0 0.00 0.06 0.00 66 1005.5
20260505093352 64 196 2.0 6.0 0.00 0.06 0.00 67 1005.5
20260505093252 64 196 2.0 6.0 0.00 0.06 0.00 64 1005.5
20260505093153 64 196 2.0 6.0 0.00 0.06 0.00 65 1005.5
20260505093102 64 196 2.0 6.0 0.00 0.06 0.00 65 1005.5
20260505093047 64 173 1.0 6.0 0.00 0.06 0.00 65 1005.5
20260505092947 64 173 2.0 6.0 0.00 0.06 0.00 67 1005.5
20260505092845 64 173 2.0 6.0 0.00 0.06 0.00 68 1005.5
20260505092744 64 173 2.0 6.0 0.00 0.06 0.00 67 1005.6
20260505092644 64 173 2.0 6.0 0.00 0.06 0.00 65 1005.6
20260505092601 64 173 2.0 6.0 0.00 0.06 0.00 65 1005.6
20260505092541 64 173 2.0 6.0 0.00 0.06 0.00 65 1005.6
20260505092437 64 127 2.0 5.0 0.00 0.06 0.00 66 1005.6
20260505092337 64 121 1.0 5.0 0.00 0.06 0.00 66 1005.7
20260505092237 64 135 1.0 3.0 0.00 0.06 0.00 67 1005.7
20260505092138 63 118 1.0 3.0 0.00 0.06 0.00 69 1005.7
20260505092101 63 151 1.0 3.0 0.00 0.06 0.00 69 1005.7
20260505092038 63 151 1.0 3.0 0.00 0.06 0.00 68 1005.7
20260505091938 63 151 1.0 3.0 0.00 0.06 0.00 68 1005.8
20260505091837 63 151 1.0 3.0 0.00 0.06 0.00 68 1005.8
20260505091735 63 151 1.0 3.0 0.00 0.06 0.00 66 1005.8
20260505091635 63 151 1.0 3.0 0.00 0.06 0.00 69 1005.8
20260505091600 63 151 1.0 3.0 0.00 0.06 0.00 69 1005.8
20260505091535 63 151 1.0 3.0 0.00 0.06 0.00 68 1005.8
20260505091436 63 151 1.0 3.0 0.00 0.06 0.00 67 1005.8
20260505091333 63 168 1.0 2.0 0.00 0.06 0.00 69 1005.8
20260505091233 63 168 1.0 2.0 0.00 0.06 0.00 69 1005.9
20260505091134 63 169 1.0 2.0 0.00 0.06 0.00 68 1005.8
20260505091100 63 169 1.0 2.0 0.00 0.06 0.00 68 1005.8
20260505091029 63 169 1.0 2.0 0.00 0.06 0.00 68 1005.8
20260505090929 63 169 1.0 2.0 0.00 0.06 0.00 69 1005.8
20260505090829 63 169 1.0 2.0 0.00 0.06 0.00 69 1005.8
20260505090729 63 169 1.0 2.0 0.00 0.06 0.00 68 1005.8
20260505090629 63 169 1.0 2.0 0.00 0.06 0.00 68 1005.9
20260505090601 63 169 1.0 2.0 0.00 0.06 0.00 69 1005.9
20260505090529 63 169 1.0 2.0 0.00 0.06 0.00 70 1005.9
20260505090430 63 169 1.0 4.0 0.00 0.06 0.00 69 1005.9
20260505090335 63 169 1.0 4.0 0.00 0.06 0.00 70 1005.9
20260505090229 62 169 1.0 4.0 0.00 0.06 0.00 70 1005.9
20260505090128 63 169 1.0 4.0 0.00 0.06 0.00 69 1006.0
20260505090101 62 169 1.0 4.0 0.00 0.06 0.00 69 1006.0
20260505090029 62 169 1.0 4.0 0.00 0.06 0.00 69 1006.0
20260505085930 62 169 1.0 4.0 0.00 0.06 0.00 70 1005.9
20260505085829 63 169 1.0 4.0 0.00 0.06 0.00 70 1006.0
20260505085729 62 169 1.0 4.0 0.00 0.06 0.00 69 1006.0
20260505085629 62 169 1.0 4.0 0.00 0.06 0.00 72 1006.0
20260505085601 62 169 1.0 4.0 0.00 0.06 0.00 71 1006.0
20260505085529 62 169 1.0 4.0 0.00 0.06 0.00 71 1006.0
20260505085429 62 128 1.0 3.0 0.00 0.06 0.00 71 1006.0
20260505085328 62 104 1.0 4.0 0.00 0.06 0.00 73 1006.0
20260505085228 62 101 1.0 4.0 0.00 0.06 0.00 73 1006.0
20260505085128 62 101 1.0 4.0 0.00 0.06 0.00 73 1006.0
20260505085101 62 101 1.0 4.0 0.00 0.06 0.00 74 1006.0
20260505085029 62 101 1.0 4.0 0.00 0.06 0.00 74 1006.0
20260505084929 62 96 1.0 4.0 0.00 0.06 0.00 74 1006.0
20260505084829 62 95 1.0 4.0 0.00 0.06 0.00 72 1006.0
20260505084729 62 86 1.0 4.0 0.00 0.06 0.00 74 1006.0
20260505084628 62 86 1.0 4.0 0.00 0.06 0.00 74 1006.0
20260505084601 62 85 1.0 4.0 0.00 0.06 0.00 74 1006.0
20260505084528 61 73 1.0 4.0 0.00 0.06 0.00 74 1006.0
20260505084428 61 72 1.0 4.0 0.00 0.06 0.00 75 1006.0
20260505084329 61 126 1.0 4.0 0.00 0.06 0.00 75 1006.1
20260505084229 61 126 1.0 4.0 0.00 0.06 0.00 74 1006.1
20260505084134 61 126 1.0 4.0 0.00 0.06 0.00 76 1006.1
20260505084101 61 126 1.0 4.0 0.00 0.06 0.00 76 1006.1
20260505084027 61 126 1.0 6.0 0.00 0.06 0.00 76 1006.2
20260505083927 61 126 2.0 6.0 0.00 0.06 0.00 74 1006.2
20260505083825 61 126 2.0 6.0 0.00 0.06 0.00 73 1006.2
20260505083723 61 126 2.0 6.0 0.00 0.06 0.00 74 1006.2
20260505083623 61 128 1.0 6.0 0.00 0.06 0.00 74 1006.2
20260505083601 61 127 1.0 6.0 0.00 0.06 0.00 74 1006.2
20260505083521 61 126 1.0 6.0 0.00 0.06 0.00 76 1006.2
20260505083419 61 126 1.0 6.0 0.00 0.06 0.00 76 1006.2
20260505083331 61 126 2.0 6.0 0.00 0.06 0.00 76 1006.2
20260505083325 61 126 1.0 6.0 0.00 0.06 0.00 75 1006.3
20260505083321 61 126 2.0 6.0 0.00 0.06 0.00 75 1006.3
20260505083313 61 127 2.0 6.0 0.00 0.06 0.00 76 1006.2
20260505083011 61 126 1.0 5.0 0.00 0.06 0.00 77 1006.2
20260505082911 60 103 1.0 4.0 0.00 0.06 0.00 77 1006.2
20260505082826 60 102 1.0 4.0 0.00 0.06 0.00 76 1006.2
20260505082822 60 93 1.0 4.0 0.00 0.06 0.00 78 1006.2
20260505082813 60 114 2.0 4.0 0.00 0.06 0.00 77 1006.2
20260505082507 60 114 2.0 4.0 0.00 0.06 0.00 78 1006.2
20260505082407 60 115 2.0 4.0 0.00 0.06 0.00 77 1006.2
20260505082307 60 115 2.0 4.0 0.00 0.06 0.00 77 1006.2
20260505082207 60 122 2.0 4.0 0.00 0.06 0.00 77 1006.3
20260505082108 59 123 2.0 4.0 0.00 0.06 0.00 77 1006.2
20260505082100 59 123 2.0 4.0 0.00 0.06 0.00 78 1006.2
20260505082007 59 122 2.0 4.0 0.00 0.06 0.00 78 1006.2
20260505081907 59 122 2.0 4.0 0.00 0.06 0.00 78 1006.2
20260505081805 59 121 2.0 4.0 0.00 0.06 0.00 78 1006.2
20260505081705 59 81 1.0 3.0 0.00 0.06 0.00 78 1006.2
20260505081605 59 46 1.0 3.0 0.00 0.06 0.00 79 1006.2
20260505081601 59 37 1.0 3.0 0.00 0.06 0.00 78 1006.2
20260505081505 59 336 1.0 3.0 0.00 0.06 0.00 79 1006.2
20260505081406 59 337 1.0 3.0 0.00 0.06 0.00 79 1006.3
20260505081325 58 337 1.0 3.0 0.00 0.06 0.00 79 1006.2
20260505081321 58 337 1.0 3.0 0.00 0.06 0.00 79 1006.3
20260505081312 58 338 1.0 3.0 0.00 0.06 0.00 80 1006.3
20260505081002 58 338 1.0 3.0 0.00 0.06 0.00 80 1006.3
20260505080901 58 338 1.0 3.0 0.00 0.06 0.00 80 1006.3
20260505080826 58 340 1.0 3.0 0.00 0.06 0.00 79 1006.3
20260505080822 58 340 1.0 3.0 0.00 0.06 0.00 79 1006.3
20260505080813 58 340 1.0 3.0 0.00 0.06 0.00 80 1006.3
20260505080501 58 337 1.0 3.0 0.00 0.06 0.00 80 1006.3
20260505080401 58 337 1.0 3.0 0.00 0.06 0.00 80 1006.4
20260505080301 58 337 1.0 3.0 0.00 0.06 0.00 80 1006.3
20260505080201 58 336 1.0 3.0 0.00 0.06 0.00 80 1006.4
20260505080001 58 336 1.0 3.0 0.00 0.06 0.00 81 1006.4
20260505075901 57 336 1.0 3.0 0.00 0.06 0.00 80 1006.4
20260505075824 57 336 1.0 3.0 0.00 0.06 0.00 81 1006.4
20260505075820 57 340 1.0 2.0 0.00 0.06 0.00 81 1006.4
20260505075811 57 340 1.0 2.0 0.00 0.06 0.00 81 1006.4
20260505075500 57 340 0.0 2.0 0.00 0.06 0.00 80 1006.4
20260505075400 57 340 0.0 2.0 0.00 0.06 0.00 79 1006.4
20260505075325 57 340 0.0 2.0 0.00 0.06 0.00 80 1006.4
20260505075320 57 340 1.0 3.0 0.00 0.06 0.00 81 1006.4
20260505075312 57 340 1.0 3.0 0.00 0.06 0.00 82 1006.3
20260505075000 57 339 0.0 3.0 0.00 0.06 0.00 84 1006.3
20260505074900 57 339 1.0 3.0 0.00 0.06 0.00 83 1006.3
20260505074800 57 339 1.0 3.0 0.00 0.06 0.00 83 1006.3
20260505074700 57 339 1.0 3.0 0.00 0.06 0.00 83 1006.3
20260505074601 57 339 1.0 3.0 0.00 0.06 0.00 83 1006.3
20260505074501 57 338 1.0 3.0 0.00 0.06 0.00 83 1006.3
20260505074401 57 338 1.0 3.0 0.00 0.06 0.00 83 1006.4
20260505074301 56 338 1.0 3.0 0.00 0.06 0.00 84 1006.4
20260505074201 56 338 1.0 3.0 0.00 0.06 0.00 84 1006.4
20260505074101 56 338 1.0 3.0 0.00 0.06 0.00 84 1006.4
20260505074001 56 338 1.0 3.0 0.00 0.06 0.00 84 1006.5
20260505073901 56 338 1.0 3.0 0.00 0.06 0.00 84 1006.5
20260505073825 56 338 1.0 3.0 0.00 0.06 0.00 84 1006.4
20260505073821 56 338 1.0 3.0 0.00 0.06 0.00 84 1006.4
20260505073813 56 338 1.0 4.0 0.00 0.06 0.00 84 1006.4
20260505073501 56 338 2.0 4.0 0.00 0.06 0.00 84 1006.5
20260505073401 56 338 1.0 4.0 0.00 0.06 0.00 85 1006.4
20260505073301 56 338 1.0 4.0 0.00 0.06 0.00 86 1006.5
20260505073201 56 338 1.0 4.0 0.00 0.06 0.00 85 1006.5
20260505073106 56 338 1.0 4.0 0.00 0.06 0.00 85 1006.5
20260505073000 56 338 1.0 4.0 0.00 0.06 0.00 85 1006.5
20260505072900 55 338 2.0 4.0 0.00 0.06 0.00 86 1006.5
20260505072801 55 338 2.0 4.0 0.00 0.06 0.00 86 1006.5
20260505072701 55 338 2.0 4.0 0.00 0.06 0.00 86 1006.7
20260505072604 55 338 2.0 4.0 0.00 0.06 0.00 86 1006.7
20260505072501 55 55 1.0 3.0 0.00 0.06 0.00 86 1006.7
20260505072401 55 202 1.0 3.0 0.00 0.06 0.00 86 1006.7
20260505072320 55 203 1.0 3.0 0.00 0.06 0.00 86 1006.7
20260505072316 55 204 2.0 3.0 0.00 0.06 0.00 86 1006.8
20260505072312 55 204 2.0 3.0 0.00 0.06 0.00 86 1006.8
20260505072000 55 204 2.0 3.0 0.00 0.06 0.00 86 1006.8
20260505071900 54 204 2.0 3.0 0.00 0.06 0.00 86 1006.8
20260505071800 54 204 1.0 3.0 0.00 0.06 0.00 86 1006.9
20260505071701 54 198 1.0 3.0 0.00 0.06 0.00 86 1006.9
20260505071601 54 198 1.0 3.0 0.00 0.06 0.00 87 1006.9
20260505071500 54 198 1.0 3.0 0.00 0.06 0.00 87 1006.9
20260505071400 54 198 1.0 3.0 0.00 0.06 0.00 87 1006.9
20260505071320 54 198 1.0 3.0 0.00 0.06 0.00 88 1007.0
20260505071316 54 198 1.0 3.0 0.00 0.06 0.00 89 1007.0
20260505071312 54 198 1.0 3.0 0.00 0.06 0.00 90 1007.0
20260505071001 53 198 1.0 3.0 0.00 0.06 0.00 90 1007.0
20260505070901 53 198 1.0 3.0 0.00 0.06 0.00 90 1007.0
20260505070801 53 198 1.0 3.0 0.00 0.06 0.00 90 1007.1
20260505070701 53 198 1.0 3.0 0.00 0.06 0.00 90 1007.1
20260505070601 53 198 1.0 3.0 0.00 0.06 0.00 90 1007.1
20260505070501 53 198 1.0 3.0 0.00 0.06 0.00 90 1007.1
20260505070401 53 199 1.0 3.0 0.00 0.06 0.00 90 1007.1
20260505070301 53 198 1.0 5.0 0.00 0.06 0.00 90 1007.1
20260505070201 53 199 1.0 5.0 0.00 0.06 0.00 90 1007.1
20260505070001 53 200 1.0 5.0 0.00 0.06 0.00 90 1007.1
20260505065901 53 200 1.0 5.0 0.00 0.06 0.00 90 1007.1
20260505065801 53 200 2.0 5.0 0.00 0.06 0.00 90 1007.1
20260505065701 53 201 2.0 5.0 0.00 0.06 0.00 90 1007.1
20260505065601 52 201 2.0 5.0 0.00 0.06 0.00 90 1007.1
20260505065500 52 201 2.0 5.0 0.00 0.06 0.00 90 1007.1
20260505065401 52 204 2.0 5.0 0.00 0.06 0.00 90 1007.1
20260505065303 52 134 2.0 4.0 0.00 0.06 0.00 90 1007.2
20260505065201 52 134 2.0 4.0 0.00 0.06 0.00 91 1007.2
20260505065101 52 134 1.0 4.0 0.00 0.06 0.00 91 1007.2
20260505065001 52 126 1.0 4.0 0.00 0.06 0.00 91 1007.2
20260505064901 52 126 1.0 4.0 0.00 0.06 0.00 91 1007.2
20260505064821 52 125 1.0 4.0 0.00 0.06 0.00 91 1007.2
20260505064817 52 125 1.0 4.0 0.00 0.06 0.00 91 1007.2
20260505064813 51 125 1.0 4.0 0.00 0.06 0.00 91 1007.2
20260505064501 51 124 0.0 4.0 0.00 0.06 0.00 91 1007.2
20260505064401 51 124 0.0 4.0 0.00 0.06 0.00 91 1007.2
20260505064320 51 123 0.0 4.0 0.00 0.06 0.00 91 1007.2
20260505064316 51 123 0.0 1.0 0.00 0.06 0.00 91 1007.2
20260505064312 51 123 0.0 1.0 0.00 0.06 0.00 91 1007.2
20260505064001 51 123 0.0 1.0 0.00 0.06 0.00 91 1007.2
20260505063901 51 123 0.0 1.0 0.00 0.06 0.00 91 1007.2
20260505063801 51 123 0.0 1.0 0.00 0.06 0.00 92 1007.2
20260505063701 51 123 0.0 1.0 0.00 0.06 0.00 92 1007.2
20260505063600 51 123 0.0 1.0 0.00 0.06 0.00 92 1007.2
20260505063458 51 123 0.0 1.0 0.00 0.06 0.00 92 1007.3
20260505063359 51 123 0.0 1.0 0.00 0.06 0.00 92 1007.3
20260505063257 51 123 0.0 1.0 0.00 0.06 0.00 92 1007.3
20260505063157 51 123 0.0 1.0 0.00 0.06 0.00 92 1007.3
20260505063101 51 123 0.0 1.0 0.00 0.06 0.00 92 1007.3
20260505063055 51 123 0.0 1.0 0.00 0.06 0.00 92 1007.3
20260505062952 51 123 0.0 1.0 0.00 0.06 0.00 92 1007.3
20260505062847 51 123 0.0 1.0 0.00 0.06 0.00 92 1007.3
20260505062747 51 123 0.0 2.0 0.00 0.06 0.00 92 1007.3
20260505062647 51 123 0.0 2.0 0.00 0.06 0.00 92 1007.3
20260505062601 51 123 0.0 2.0 0.00 0.06 0.00 92 1007.3
20260505062547 51 123 0.0 2.0 0.00 0.06 0.00 92 1007.3
20260505062447 51 123 0.0 2.0 0.00 0.06 0.00 92 1007.3
20260505062346 51 123 0.0 2.0 0.00 0.06 0.00 92 1007.3
20260505062245 51 123 0.0 2.0 0.00 0.06 0.00 92 1007.4
20260505062145 51 123 0.0 2.0 0.00 0.06 0.00 92 1007.4
20260505062100 50 123 0.0 2.0 0.00 0.06 0.00 92 1007.4
20260505062043 50 123 1.0 2.0 0.00 0.06 0.00 92 1007.4
20260505061940 51 123 1.0 2.0 0.00 0.06 0.00 92 1007.3
20260505061835 50 123 0.0 2.0 0.00 0.06 0.00 92 1007.3
20260505061815 50 123 0.0 2.0 0.00 0.06 0.00 92 1007.3
20260505061811 50 123 0.0 2.0 0.00 0.06 0.00 92 1007.4
20260505061532 50 123 0.0 2.0 0.00 0.06 0.00 92 1007.3
20260505061431 50 125 0.0 2.0 0.00 0.06 0.00 92 1007.3
20260505061329 50 125 0.0 2.0 0.00 0.06 0.00 92 1007.3
20260505061321 50 125 0.0 1.0 0.00 0.06 0.00 93 1007.2
20260505061316 50 125 0.0 2.0 0.00 0.06 0.00 92 1007.3
20260505061312 50 125 0.0 2.0 0.00 0.06 0.00 92 1007.2
20260505061029 50 125 0.0 1.0 0.00 0.06 0.00 93 1007.3
20260505060929 50 125 0.0 2.0 0.00 0.06 0.00 93 1007.3
20260505060828 50 125 0.0 2.0 0.00 0.06 0.00 93 1007.3
20260505060729 50 125 0.0 2.0 0.00 0.06 0.00 93 1007.3
20260505060601 50 125 0.0 2.0 0.00 0.06 0.00 93 1007.3
20260505060529 50 125 0.0 2.0 0.00 0.06 0.00 93 1007.3
20260505060429 50 125 0.0 2.0 0.00 0.06 0.00 93 1007.3
20260505060329 50 125 0.0 2.0 0.00 0.06 0.00 93 1007.3
20260505060229 49 125 0.0 2.0 0.00 0.06 0.00 93 1007.3
20260505060129 49 125 0.0 2.0 0.00 0.06 0.00 94 1007.3
20260505060029 49 125 0.0 2.0 0.00 0.06 0.00 94 1007.3
20260505055929 49 125 0.0 2.0 0.00 0.06 0.00 94 1007.3
20260505055829 49 125 0.0 2.0 0.00 0.06 0.00 94 1007.3
20260505055729 49 125 0.0 2.0 0.00 0.06 0.00 94 1007.3
20260505055629 49 125 0.0 2.0 0.00 0.06 0.00 94 1007.3
20260505055529 49 125 0.0 2.0 0.00 0.06 0.00 94 1007.3
20260505055429 49 125 0.0 2.0 0.00 0.06 0.00 94 1007.3
20260505055328 49 125 0.0 2.0 0.00 0.06 0.00 94 1007.3
20260505055228 49 126 0.0 2.0 0.00 0.06 0.00 94 1007.3
20260505055128 49 126 0.0 2.0 0.00 0.06 0.00 94 1007.3
20260505055028 49 126 0.0 2.0 0.00 0.06 0.00 94 1007.2
20260505054929 49 126 0.0 2.0 0.00 0.06 0.00 94 1007.2
20260505054829 49 126 0.0 2.0 0.00 0.06 0.00 94 1007.3
20260505054729 49 126 1.0 2.0 0.00 0.06 0.00 94 1007.2
20260505054629 48 126 1.0 3.0 0.00 0.06 0.00 94 1007.3
20260505054528 48 126 1.0 3.0 0.00 0.06 0.00 94 1007.3
20260505054429 48 126 1.0 3.0 0.00 0.06 0.00 94 1007.3
20260505054329 48 126 1.0 3.0 0.00 0.06 0.00 94 1007.3
20260505054305 48 126 1.0 3.0 0.00 0.06 0.00 94 1007.2
20260505054255 48 126 1.0 3.0 0.00 0.06 0.00 94 1007.3
20260505054251 48 126 1.0 3.0 0.00 0.06 0.00 94 1007.2
20260505054029 48 126 1.0 3.0 0.00 0.06 0.00 94 1007.2
20260505053929 48 126 1.0 3.0 0.00 0.06 0.00 94 1007.2
20260505053829 48 126 1.0 3.0 0.00 0.06 0.00 94 1007.2
20260505053729 48 126 1.0 3.0 0.00 0.06 0.00 94 1007.2
20260505053629 48 126 1.0 3.0 0.00 0.06 0.00 94 1007.1
20260505053529 48 101 1.0 3.0 0.00 0.06 0.00 94 1007.1
20260505053500 47 99 0.0 2.0 0.00 0.06 0.00 94 1007.1
20260505053327 47 99 0.0 2.0 0.00 0.06 0.00 94 1007.1
20260505053226 47 99 0.0 2.0 0.00 0.06 0.00 94 1007.1
20260505053124 47 99 1.0 2.0 0.00 0.06 0.00 95 1007.1
20260505053023 47 99 1.0 3.0 0.00 0.06 0.00 94 1007.1
20260505052920 47 99 1.0 4.0 0.00 0.06 0.00 94 1007.1
20260505052821 47 99 1.0 4.0 0.00 0.06 0.00 95 1007.1
20260505052721 47 99 1.0 4.0 0.00 0.06 0.00 95 1007.1
20260505052619 47 98 1.0 4.0 0.00 0.06 0.00 95 1007.1
20260505052517 47 98 1.0 4.0 0.00 0.06 0.00 95 1007.1
20260505052411 47 98 1.0 4.0 0.00 0.06 0.00 95 1007.1
20260505052311 47 98 1.0 4.0 0.00 0.06 0.00 94 1007.1
20260505052211 47 98 1.0 4.0 0.00 0.06 0.00 94 1007.2
20260505052110 47 99 1.0 4.0 0.00 0.06 0.00 94 1007.2
20260505052037 47 99 0.0 4.0 0.00 0.06 0.00 94 1007.1
20260505052010 47 98 0.0 4.0 0.00 0.06 0.00 94 1007.1
20260505051907 46 78 0.0 2.0 0.00 0.06 0.00 94 1007.1
20260505051807 46 77 0.0 2.0 0.00 0.06 0.00 94 1007.1
20260505051803 46 77 0.0 2.0 0.00 0.06 0.00 94 1007.1
20260505051752 46 77 0.0 2.0 0.00 0.06 0.00 95 1007.1
20260505051748 46 77 0.0 2.0 0.00 0.06 0.00 94 1007.1
20260505051507 46 77 0.0 2.0 0.00 0.06 0.00 94 1007.1
20260505051400 46 77 0.0 2.0 0.00 0.06 0.00 94 1007.1
20260505051301 46 77 0.0 2.0 0.00 0.06 0.00 94 1007.1
20260505051201 46 77 0.0 2.0 0.00 0.06 0.00 94 1007.1
20260505051101 46 77 0.0 2.0 0.00 0.06 0.00 94 1007.1
20260505051036 46 77 1.0 2.0 0.00 0.06 0.00 94 1007.1
20260505051005 46 77 1.0 2.0 0.00 0.06 0.00 94 1007.1
20260505050901 46 77 1.0 2.0 0.00 0.06 0.00 94 1007.1
20260505050801 46 77 1.0 2.0 0.00 0.06 0.00 94 1007.2
20260505050755 46 77 0.0 2.0 0.00 0.06 0.00 94 1007.2
20260505050750 46 77 1.0 2.0 0.00 0.06 0.00 94 1007.2
20260505050746 46 77 0.0 2.0 0.00 0.06 0.00 94 1007.2
20260505050501 45 77 0.0 2.0 0.00 0.06 0.00 94 1007.2
20260505050401 45 77 0.0 2.0 0.00 0.06 0.00 94 1007.2
20260505050302 45 77 0.0 2.0 0.00 0.06 0.00 94 1007.2
20260505050258 45 67 0.0 2.0 0.00 0.06 0.00 93 1007.3
20260505050249 45 73 0.0 2.0 0.00 0.06 0.00 94 1007.2
20260505050245 45 71 0.0 2.0 0.00 0.06 0.00 93 1007.3
20260505041701 44 20 0.0 0.0 0.00 0.06 0.00 92 1007.4
20260505041601 44 20 0.0 0.0 0.00 0.06 0.00 92 1007.4
20260505041500 44 20 0.0 0.0 0.00 0.06 0.00 92 1007.4
20260505041400 44 20 0.0 0.0 0.00 0.06 0.00 92 1007.4
20260505041301 44 20 0.0 0.0 0.00 0.06 0.00 92 1007.4
20260505041202 44 20 0.0 0.0 0.00 0.06 0.00 92 1007.4
20260505041102 44 20 0.0 1.0 0.00 0.06 0.00 92 1007.4
20260505041000 44 20 0.0 1.0 0.00 0.06 0.00 92 1007.4
20260505040900 44 20 0.0 1.0 0.00 0.06 0.00 92 1007.5
20260505040758 44 20 0.0 1.0 0.00 0.06 0.00 92 1007.5
20260505040656 44 20 0.0 1.0 0.00 0.06 0.00 92 1007.5
20260505040528 44 20 0.0 1.0 0.00 0.06 0.00 92 1007.5
20260505040451 44 20 0.0 1.0 0.00 0.06 0.00 92 1007.6
20260505040351 44 20 0.0 1.0 0.00 0.06 0.00 92 1007.5
20260505040251 44 20 0.0 1.0 0.00 0.06 0.00 91 1007.5
20260505040150 44 20 0.0 1.0 0.00 0.06 0.00 91 1007.5
20260505040029 44 20 0.0 1.0 0.00 0.06 0.00 91 1007.5
20260505035951 44 20 0.0 1.0 0.00 0.06 0.00 91 1007.5
20260505035851 44 20 0.0 1.0 0.00 0.06 0.00 91 1007.5
20260505035749 44 20 0.0 1.0 0.00 0.06 0.00 91 1007.5
20260505035649 44 20 0.0 1.0 0.00 0.06 0.00 91 1007.5
20260505035529 44 20 0.0 1.0 0.00 0.06 0.00 91 1007.5
20260505035448 44 20 0.0 1.0 0.00 0.06 0.00 91 1007.5
20260505035346 44 20 0.0 1.0 0.00 0.06 0.00 91 1007.4
20260505035246 44 20 0.0 1.0 0.00 0.06 0.00 91 1007.4
20260505035144 44 20 0.0 1.0 0.00 0.06 0.00 91 1007.5
20260505035029 44 20 0.0 1.0 0.00 0.06 0.00 91 1007.4
20260505034945 44 20 0.0 1.0 0.00 0.06 0.00 91 1007.5
20260505034845 44 20 0.0 1.0 0.00 0.06 0.00 91 1007.5
20260505034745 44 20 0.0 1.0 0.00 0.06 0.00 90 1007.5
20260505034645 44 20 0.0 1.0 0.00 0.06 0.00 90 1007.5
20260505034528 44 20 0.0 1.0 0.00 0.06 0.00 90 1007.5
20260505034444 44 20 0.0 1.0 0.00 0.06 0.00 90 1007.5
20260505034344 44 20 0.0 1.0 0.00 0.06 0.00 90 1007.5
20260505034244 44 20 0.0 1.0 0.00 0.06 0.00 90 1007.5
20260505034145 44 20 0.0 1.0 0.00 0.06 0.00 90 1007.5
20260505034031 44 20 0.0 1.0 0.00 0.06 0.00 90 1007.5
20260505033944 44 20 0.0 1.0 0.00 0.06 0.00 90 1007.5
20260505033843 44 20 0.0 1.0 0.00 0.06 0.00 90 1007.5
20260505033743 44 20 0.0 1.0 0.00 0.06 0.00 90 1007.5
20260505033642 44 20 0.0 1.0 0.00 0.06 0.00 90 1007.5
20260505033530 44 20 0.0 1.0 0.00 0.06 0.00 90 1007.5
20260505033443 44 20 0.0 1.0 0.00 0.06 0.00 89 1007.5
20260505033342 44 20 0.0 1.0 0.00 0.06 0.00 89 1007.6
20260505033242 45 20 0.0 1.0 0.00 0.06 0.00 89 1007.6
20260505033143 45 20 0.0 1.0 0.00 0.06 0.00 89 1007.6
20260505033028 45 20 0.0 1.0 0.00 0.06 0.00 89 1007.6
20260505032943 45 20 0.0 1.0 0.00 0.06 0.00 89 1007.6
20260505032843 45 20 0.0 1.0 0.00 0.06 0.00 90 1007.6
20260505032742 45 20 0.0 1.0 0.00 0.06 0.00 90 1007.6
20260505032642 45 20 0.0 1.0 0.00 0.06 0.00 90 1007.6
20260505032529 45 20 0.0 1.0 0.00 0.06 0.00 90 1007.6
20260505032439 45 20 0.0 1.0 0.00 0.06 0.00 90 1007.6
20260505032338 45 20 0.0 1.0 0.00 0.06 0.00 90 1007.6
20260505032239 45 20 0.0 1.0 0.00 0.06 0.00 90 1007.6
20260505032139 45 20 0.0 1.0 0.00 0.06 0.00 90 1007.6
20260505032029 45 20 0.0 1.0 0.00 0.06 0.00 90 1007.6
20260505031938 45 20 0.0 1.0 0.00 0.06 0.00 90 1007.6
20260505031838 45 20 0.0 1.0 0.00 0.06 0.00 90 1007.6
20260505031739 45 20 0.0 1.0 0.00 0.06 0.00 90 1007.5
20260505031638 45 20 0.0 0.0 0.00 0.06 0.00 90 1007.6
20260505031529 45 20 0.0 0.0 0.00 0.06 0.00 90 1007.6
20260505031439 45 20 0.0 0.0 0.00 0.06 0.00 90 1007.6
20260505031338 45 20 0.0 1.0 0.00 0.06 0.00 90 1007.6
20260505031238 45 20 0.0 1.0 0.00 0.06 0.00 90 1007.6
20260505031139 45 20 0.0 1.0 0.00 0.06 0.00 90 1007.6
20260505031039 45 20 0.0 1.0 0.00 0.06 0.00 90 1007.6
20260505031029 46 20 0.0 1.0 0.00 0.06 0.00 90 1007.6
20260505030939 46 20 0.0 1.0 0.00 0.06 0.00 90 1007.6
20260505030843 46 20 0.0 1.0 0.00 0.06 0.00 90 1007.6
20260505030739 46 20 0.0 1.0 0.00 0.06 0.00 90 1007.7
20260505030638 46 20 0.0 1.0 0.00 0.06 0.00 90 1007.7
20260505030528 46 20 0.0 1.0 0.00 0.06 0.00 90 1007.7
20260505030434 46 20 0.0 1.0 0.00 0.06 0.00 90 1007.7
20260505030339 46 20 0.0 1.0 0.00 0.06 0.00 90 1007.7
20260505030235 46 20 0.0 0.0 0.00 0.06 0.00 90 1007.7
20260505030135 46 20 0.0 0.0 0.00 0.06 0.00 90 1007.7
20260505030028 46 20 0.0 0.0 0.00 0.06 0.00 90 1007.7
20260505025935 46 20 0.0 0.0 0.00 0.06 0.00 90 1007.7
20260505025835 46 20 0.0 1.0 0.00 0.06 0.00 90 1007.7
20260505025735 46 20 0.0 1.0 0.00 0.06 0.00 90 1007.7
20260505025635 46 20 0.0 1.0 0.00 0.06 0.00 90 1007.7
20260505025529 46 20 0.0 1.0 0.00 0.06 0.00 90 1007.7
20260505025434 46 20 0.0 1.0 0.00 0.06 0.00 90 1007.7
20260505025334 46 20 0.0 1.0 0.00 0.06 0.00 90 1007.7
20260505025248 46 20 0.0 1.0 0.00 0.06 0.00 90 1007.7
20260505025244 46 20 0.0 1.0 0.00 0.06 0.00 90 1007.8
20260505025240 46 20 0.0 1.0 0.00 0.06 0.00 90 1007.8
20260505024935 46 20 0.0 1.0 0.00 0.06 0.00 90 1007.8
20260505024834 46 20 0.0 0.0 0.00 0.06 0.00 90 1007.8
20260505024734 46 20 0.0 0.0 0.00 0.06 0.00 90 1007.8
20260505024629 46 20 0.0 1.0 0.00 0.06 0.00 90 1007.8
20260505024529 46 20 0.0 1.0 0.00 0.06 0.00 90 1007.8
20260505024429 46 20 0.0 1.0 0.00 0.06 0.00 89 1007.9
20260505024330 46 20 0.0 1.0 0.00 0.06 0.00 89 1007.9
20260505024229 46 20 0.0 1.0 0.00 0.06 0.00 89 1007.9
20260505024129 46 20 0.0 1.0 0.00 0.06 0.00 89 1008.0
20260505024031 46 20 0.0 1.0 0.00 0.06 0.00 89 1008.0
20260505023929 46 20 0.0 1.0 0.00 0.06 0.00 89 1008.0
20260505023829 46 20 0.0 1.0 0.00 0.06 0.00 89 1008.0
20260505023728 46 20 0.0 1.0 0.00 0.06 0.00 89 1008.0
20260505023629 46 20 0.0 1.0 0.00 0.06 0.00 88 1008.1
20260505023529 46 20 0.0 0.0 0.00 0.06 0.00 88 1008.0
20260505023429 47 20 0.0 0.0 0.00 0.06 0.00 88 1008.1
20260505023329 47 20 0.0 0.0 0.00 0.06 0.00 88 1008.1
20260505023229 47 20 0.0 0.0 0.00 0.06 0.00 88 1008.1
20260505023129 47 20 0.0 0.0 0.00 0.06 0.00 88 1008.1
20260505023029 47 20 0.0 0.0 0.00 0.06 0.00 88 1008.1
20260505022929 47 20 0.0 0.0 0.00 0.06 0.00 88 1008.2
20260505022829 47 20 0.0 0.0 0.00 0.06 0.00 88 1008.2
20260505022727 47 20 0.0 1.0 0.00 0.06 0.00 88 1008.2
20260505022627 47 20 0.0 1.0 0.00 0.06 0.00 89 1008.2
20260505022527 47 20 0.0 1.0 0.00 0.06 0.00 89 1008.2
20260505022426 47 20 0.0 1.0 0.00 0.06 0.00 89 1008.2
20260505022326 47 20 0.0 1.0 0.00 0.06 0.00 90 1008.2
20260505022227 47 20 0.0 1.0 0.00 0.06 0.00 90 1008.2
20260505022126 47 20 0.0 1.0 0.00 0.06 0.00 91 1008.2
20260505022027 47 20 0.0 2.0 0.00 0.06 0.00 91 1008.2
20260505021927 47 20 0.0 2.0 0.00 0.06 0.00 91 1008.2
20260505021831 48 20 0.0 2.0 0.00 0.06 0.00 91 1008.2
20260505021726 48 20 1.0 2.0 0.00 0.06 0.00 91 1008.3
20260505021626 47 20 1.0 2.0 0.00 0.06 0.00 92 1008.3
20260505021526 48 20 1.0 2.0 0.00 0.06 0.00 92 1008.3
20260505021426 48 20 1.0 2.0 0.00 0.06 0.00 92 1008.4
20260505021327 48 20 1.0 2.0 0.00 0.06 0.00 92 1008.4
20260505021227 48 20 1.0 2.0 0.00 0.06 0.00 92 1008.4
20260505021126 48 20 1.0 2.0 0.00 0.06 0.00 92 1008.4
20260505021026 48 20 1.0 2.0 0.00 0.06 0.00 92 1008.4
20260505020926 48 20 1.0 2.0 0.00 0.06 0.00 92 1008.4
20260505020822 48 20 1.0 2.0 0.00 0.06 0.00 92 1008.6
20260505020723 48 20 1.0 2.0 0.00 0.06 0.00 92 1008.4
20260505020623 48 20 1.0 2.0 0.00 0.06 0.00 92 1008.6
20260505020522 48 20 1.0 2.0 0.00 0.06 0.00 92 1008.6
20260505020422 48 20 1.0 2.0 0.00 0.06 0.00 92 1008.6
20260505020322 48 20 1.0 2.0 0.00 0.06 0.00 92 1008.6
20260505020223 48 20 1.0 2.0 0.00 0.06 0.00 92 1008.6
20260505020122 48 20 1.0 2.0 0.00 0.06 0.00 92 1008.6
20260505020022 48 20 1.0 2.0 0.00 0.06 0.00 92 1008.6
20260505015920 48 20 1.0 2.0 0.00 0.06 0.00 92 1008.6
20260505015818 48 20 1.0 2.0 0.00 0.06 0.00 91 1008.6
20260505015718 48 20 1.0 2.0 0.00 0.06 0.00 91 1008.6
20260505015617 48 20 1.0 3.0 0.00 0.06 0.00 91 1008.4
20260505015516 48 20 1.0 3.0 0.00 0.06 0.00 91 1008.4
20260505015412 48 20 1.0 3.0 0.00 0.06 0.00 91 1008.4
20260505015311 48 20 1.0 3.0 0.00 0.06 0.00 91 1008.6
20260505015208 48 20 1.0 3.0 0.00 0.06 0.00 91 1008.6
20260505015108 48 20 1.0 3.0 0.00 0.06 0.00 91 1008.4
20260505015006 48 20 1.0 3.0 0.00 0.06 0.00 91 1008.6
20260505014906 48 20 1.0 3.0 0.00 0.06 0.00 91 1008.6
20260505014804 48 20 1.0 3.0 0.00 0.06 0.00 91 1008.6
20260505014702 48 43 1.0 3.0 0.00 0.06 0.00 91 1008.4
20260505014602 48 51 1.0 2.0 0.00 0.06 0.00 91 1008.6
20260505014531 48 107 0.0 2.0 0.00 0.06 0.00 91 1008.6
20260505014501 48 108 0.0 2.0 0.00 0.06 0.00 91 1008.6
20260505014402 48 108 0.0 2.0 0.00 0.06 0.00 91 1008.6
20260505014303 48 108 0.0 1.0 0.00 0.06 0.00 91 1008.6
20260505014258 48 108 0.0 1.0 0.00 0.06 0.00 91 1008.6
20260505014245 48 108 0.0 1.0 0.00 0.06 0.00 91 1008.6
20260505014241 48 108 0.0 1.0 0.00 0.06 0.00 91 1008.6
20260505014001 48 108 0.0 1.0 0.00 0.06 0.00 91 1008.6
20260505013901 48 108 0.0 1.0 0.00 0.06 0.00 91 1008.7
20260505013801 48 108 0.0 1.0 0.00 0.06 0.00 90 1008.6
20260505013701 48 108 0.0 1.0 0.00 0.06 0.00 90 1008.6
20260505013601 48 108 0.0 1.0 0.00 0.06 0.00 90 1008.4
20260505013501 48 108 0.0 0.0 0.00 0.06 0.00 90 1008.6
20260505013401 48 108 0.0 0.0 0.00 0.06 0.00 90 1008.4
20260505013301 48 108 0.0 0.0 0.00 0.06 0.00 90 1008.4
20260505013201 48 108 0.0 0.0 0.00 0.06 0.00 90 1008.4
20260505013101 48 108 0.0 0.0 0.00 0.06 0.00 90 1008.4
20260505013030 48 108 0.0 0.0 0.00 0.06 0.00 90 1008.4
20260505013001 49 109 0.0 0.0 0.00 0.06 0.00 90 1008.4
20260505012901 49 108 0.0 0.0 0.00 0.06 0.00 90 1008.6
20260505012801 49 108 0.0 0.0 0.00 0.06 0.00 90 1008.6
20260505012701 49 108 0.0 0.0 0.00 0.06 0.00 90 1008.4
20260505012601 49 108 0.0 0.0 0.00 0.06 0.00 90 1008.6
20260505012529 49 108 0.0 0.0 0.00 0.06 0.00 90 1008.6
20260505012500 49 108 0.0 1.0 0.00 0.06 0.00 90 1008.6
20260505012400 49 108 0.0 1.0 0.00 0.06 0.00 90 1008.6
20260505012258 49 108 0.0 1.0 0.00 0.06 0.00 90 1008.4
20260505012203 49 108 0.0 1.0 0.00 0.06 0.00 90 1008.6
20260505012029 49 108 0.0 1.0 0.00 0.06 0.00 90 1008.6
20260505011957 49 108 0.0 1.0 0.00 0.06 0.00 90 1008.7
20260505011852 49 108 0.0 1.0 0.00 0.06 0.00 90 1008.6
20260505011752 49 108 0.0 1.0 0.00 0.06 0.00 90 1008.6
20260505011652 49 108 0.0 1.0 0.00 0.06 0.00 90 1008.6
20260505011552 49 108 0.0 1.0 0.00 0.06 0.00 90 1008.7
20260505011529 49 108 0.0 1.0 0.00 0.06 0.00 91 1008.7
20260505011452 49 108 0.0 1.0 0.00 0.06 0.00 90 1008.6
20260505011352 49 108 0.0 0.0 0.00 0.06 0.00 91 1008.6
20260505011252 49 108 0.0 0.0 0.00 0.06 0.00 91 1008.7
20260505011152 49 108 0.0 0.0 0.00 0.06 0.00 91 1008.6
20260505011031 49 108 0.0 0.0 0.00 0.06 0.00 90 1008.7
20260505010953 49 108 0.0 0.0 0.00 0.06 0.00 90 1008.6
20260505010853 49 108 0.0 0.0 0.00 0.06 0.00 90 1008.6
20260505010752 49 108 0.0 0.0 0.00 0.06 0.00 90 1008.6
20260505010650 49 108 0.0 0.0 0.00 0.06 0.00 90 1008.6
20260505010529 49 108 0.0 0.0 0.00 0.06 0.00 90 1008.6
20260505010450 49 108 0.0 0.0 0.00 0.06 0.00 90 1008.6
20260505010348 49 108 0.0 0.0 0.00 0.06 0.00 90 1008.6
20260505010247 49 108 0.0 0.0 0.00 0.06 0.00 90 1008.6
20260505010144 49 108 0.0 0.0 0.00 0.06 0.00 90 1008.6
20260505010029 49 108 0.0 0.0 0.00 0.06 0.00 90 1008.6
20260505005944 49 108 0.0 0.0 0.00 0.06 0.00 90 1008.6
20260505005843 49 108 0.0 0.0 0.00 0.06 0.00 90 1008.7
20260505005740 49 108 0.0 0.0 0.00 0.06 0.00 90 1008.6
20260505005640 49 108 0.0 0.0 0.00 0.06 0.00 90 1008.6
20260505005529 49 108 0.0 0.0 0.00 0.06 0.00 90 1008.7
20260505005441 49 108 0.0 0.0 0.00 0.06 0.00 90 1008.7
20260505005336 49 108 0.0 0.0 0.00 0.06 0.00 90 1008.6
20260505005240 49 108 0.0 0.0 0.00 0.06 0.00 90 1008.7
20260505005134 50 108 0.0 0.0 0.00 0.06 0.00 90 1008.7
20260505005028 50 108 0.0 0.0 0.00 0.06 0.00 90 1008.6
20260505004936 50 108 0.0 0.0 0.00 0.06 0.00 90 1008.7
20260505004829 50 108 0.0 0.0 0.00 0.06 0.00 90 1008.7
20260505004734 50 108 0.0 0.0 0.00 0.06 0.00 90 1008.7
20260505004629 50 108 0.0 1.0 0.00 0.06 0.00 90 1008.7
20260505004531 50 108 0.0 1.0 0.00 0.06 0.00 89 1008.7
20260505004429 50 108 0.0 1.0 0.00 0.06 0.00 89 1008.7
20260505004329 50 108 0.0 1.0 0.00 0.06 0.00 89 1008.7
20260505004234 50 108 0.0 1.0 0.00 0.06 0.00 89 1008.7
20260505004129 50 108 0.0 1.0 0.00 0.06 0.00 89 1008.7
20260505004031 50 108 0.0 1.0 0.00 0.06 0.00 89 1008.7
20260505003929 50 108 0.0 1.0 0.00 0.06 0.00 89 1008.7
20260505003826 50 108 0.0 1.0 0.00 0.06 0.00 89 1008.8
20260505003729 50 108 0.0 2.0 0.00 0.06 0.00 89 1008.8
20260505003626 50 108 0.0 2.0 0.00 0.06 0.00 89 1008.8
20260505003524 50 108 1.0 2.0 0.00 0.06 0.00 89 1008.8
20260505003424 50 108 1.0 2.0 0.00 0.06 0.00 90 1008.8
20260505003322 50 108 1.0 2.0 0.00 0.06 0.00 90 1008.9
20260505003224 50 108 1.0 2.0 0.00 0.06 0.00 90 1008.8
20260505003117 50 108 1.0 2.0 0.00 0.06 0.00 90 1008.8
20260505003016 50 108 1.0 2.0 0.00 0.06 0.00 90 1008.8
20260505002916 50 108 1.0 2.0 0.00 0.06 0.00 90 1008.8
20260505002816 50 108 0.0 2.0 0.00 0.06 0.00 90 1008.8
20260505002718 50 108 0.0 2.0 0.00 0.06 0.00 90 1008.8
20260505002610 50 108 0.0 2.0 0.00 0.06 0.00 90 1008.8
20260505002529 50 108 0.0 2.0 0.00 0.06 0.00 90 1008.8
20260505002508 50 109 0.0 2.0 0.00 0.06 0.00 89 1008.8
20260505002409 50 109 0.0 2.0 0.00 0.06 0.00 89 1008.8
20260505002211 51 109 0.0 0.0 0.00 0.06 0.00 89 1008.8
20260505002104 50 109 0.0 0.0 0.00 0.06 0.00 90 1008.9
20260505002025 51 109 0.0 0.0 0.00 0.06 0.00 90 1008.9
20260505002002 51 109 0.0 0.0 0.00 0.06 0.00 89 1008.9
20260505001902 51 109 0.0 0.0 0.00 0.06 0.00 90 1008.9
20260505001802 51 109 0.0 0.0 0.00 0.06 0.00 90 1008.9
20260505001706 51 109 0.0 0.0 0.00 0.06 0.00 90 1008.9
20260505001602 51 109 0.0 0.0 0.00 0.06 0.00 90 1008.9
20260505001501 51 109 0.0 0.0 0.00 0.06 0.00 90 1008.9
20260505001401 51 109 0.0 0.0 0.00 0.06 0.00 90 1008.9
20260505001301 51 109 0.0 0.0 0.00 0.06 0.00 90 1008.9
20260505001201 51 109 0.0 0.0 0.00 0.06 0.00 90 1008.9
20260505001102 51 109 0.0 0.0 0.00 0.06 0.00 90 1008.9
20260505001014 51 109 0.0 0.0 0.00 0.06 0.00 90 1008.9
20260505001001 51 109 0.0 1.0 0.00 0.06 0.00 90 1008.9
20260505000901 51 109 0.0 1.0 0.00 0.06 0.00 90 1008.9
20260505000801 51 109 0.0 2.0 0.00 0.06 0.00 90 1008.9
20260505000701 51 109 0.0 2.0 0.00 0.06 0.00 90 1008.9
20260505000600 51 109 0.0 2.0 0.00 0.06 0.00 90 1008.9
20260505000501 51 109 0.0 2.0 0.00 0.06 0.00 90 1008.9
20260505000401 51 109 0.0 2.0 0.00 0.06 0.00 90 1008.9
20260505000301 51 109 0.0 2.0 0.00 0.06 0.00 90 1009.0
20260505000235 51 109 0.0 2.0 0.00 0.06 0.00 90 1009.0
20260505000228 51 109 0.0 2.0 0.00 0.06 0.00 90 1009.0
20260505000220 51 109 0.0 2.0 0.00 0.06 0.00 90 1009.0
20260505000001 51 109 0.0 2.0 0.00 0.06 0.00 90 1009.0
20260504235900 51 109 0.0 2.0 0.00 0.06 0.00 90 1009.0
20260504235800 51 109 0.0 1.0 0.00 0.06 0.00 90 1009.0
20260504235741 51 109 0.0 1.0 0.00 0.06 0.00 90 1009.0
20260504235729 51 109 0.0 1.0 0.00 0.06 0.00 90 1009.0
20260504235721 51 109 0.0 1.0 0.00 0.06 0.00 90 1009.0
20260504235500 51 109 0.0 1.0 0.00 0.06 0.00 90 1009.0
20260504235401 51 109 0.0 1.0 0.00 0.06 0.00 90 1009.0
20260504235301 51 109 0.0 0.0 0.00 0.06 0.00 90 1009.0
20260504235201 51 109 0.0 0.0 0.00 0.06 0.00 90 1009.0
20260504235101 51 109 0.0 0.0 0.00 0.06 0.00 90 1009.0
20260504235000 51 109 0.0 1.0 0.00 0.06 0.00 90 1009.1
20260504234900 51 109 0.0 1.0 0.00 0.06 0.00 90 1009.1
20260504234806 51 109 0.0 2.0 0.00 0.06 0.00 90 1009.1
20260504234702 51 109 0.0 2.0 0.00 0.06 0.00 90 1009.1
20260504234601 51 109 0.0 2.0 0.00 0.06 0.00 90 1009.1
20260504234502 51 109 0.0 2.0 0.00 0.06 0.00 90 1009.1
20260504234302 51 109 0.0 2.0 0.00 0.06 0.00 90 1009.1
20260504234201 51 109 0.0 2.0 0.00 0.06 0.00 90 1009.1
20260504234102 51 109 0.0 2.0 0.00 0.06 0.00 90 1009.1
20260504234001 51 109 0.0 2.0 0.00 0.06 0.00 90 1009.2
20260504233901 51 109 0.0 2.0 0.00 0.06 0.00 90 1009.2
20260504233801 51 109 0.0 2.0 0.00 0.06 0.00 90 1009.2
20260504233731 51 109 0.0 2.0 0.00 0.06 0.00 90 1009.2
20260504233725 51 109 0.0 2.0 0.00 0.06 0.00 90 1009.2
20260504233717 51 109 0.0 2.0 0.00 0.06 0.00 90 1009.2
20260504233501 51 109 0.0 2.0 0.00 0.06 0.00 90 1009.2
20260504233401 51 109 0.0 2.0 0.00 0.06 0.00 90 1009.3
20260504233301 51 109 0.0 2.0 0.00 0.06 0.00 90 1009.3
20260504233232 51 110 0.0 2.0 0.00 0.06 0.00 90 1009.2
20260504233224 51 109 0.0 2.0 0.00 0.06 0.00 90 1009.2
20260504233216 51 110 0.0 2.0 0.00 0.06 0.00 90 1009.3
20260504233001 51 110 0.0 2.0 0.00 0.06 0.00 90 1009.2
20260504232900 51 110 0.0 2.0 0.00 0.06 0.00 90 1009.3
20260504232800 51 110 0.0 2.0 0.00 0.06 0.00 90 1009.3
20260504232730 51 110 0.0 1.0 0.00 0.06 0.00 90 1009.3
20260504232721 51 110 0.0 1.0 0.00 0.06 0.00 90 1009.3
20260504232713 51 110 0.0 1.0 0.00 0.06 0.00 90 1009.3
20260504232456 51 111 0.0 1.0 0.00 0.06 0.00 90 1009.3
20260504232356 51 111 0.0 1.0 0.00 0.06 0.00 90 1009.3
20260504232256 51 111 0.0 1.0 0.00 0.06 0.00 90 1009.3
20260504232156 51 110 0.0 1.0 0.00 0.06 0.00 90 1009.3
20260504232056 51 110 0.0 2.0 0.00 0.06 0.00 90 1009.3
20260504232002 51 110 0.0 2.0 0.00 0.06 0.00 90 1009.3
20260504231953 51 111 0.0 2.0 0.00 0.06 0.00 90 1009.3
20260504231854 51 111 0.0 2.0 0.00 0.06 0.00 90 1009.4
20260504231754 51 111 0.0 2.0 0.00 0.06 0.00 90 1009.4
20260504231725 51 108 0.0 2.0 0.00 0.06 0.00 89 1009.4
20260504231721 51 108 0.0 2.0 0.00 0.06 0.00 90 1009.4
20260504231713 51 108 0.0 2.0 0.00 0.06 0.00 90 1009.4
20260504231450 51 108 0.0 2.0 0.00 0.06 0.00 89 1009.4
20260504231349 51 109 0.0 2.0 0.00 0.06 0.00 89 1009.4
20260504231250 51 108 0.0 2.0 0.00 0.06 0.00 89 1009.5
20260504231150 51 109 0.0 2.0 0.00 0.06 0.00 89 1009.4
20260504231049 51 109 0.0 2.0 0.00 0.06 0.00 89 1009.5
20260504231001 51 109 0.0 2.0 0.00 0.06 0.00 89 1009.5
20260504230948 51 109 0.0 2.0 0.00 0.06 0.00 89 1009.5
20260504230846 51 109 0.0 2.0 0.00 0.06 0.00 89 1009.5
20260504230746 51 107 0.0 2.0 0.00 0.06 0.00 89 1009.5
20260504230644 51 107 0.0 2.0 0.00 0.06 0.00 89 1009.5
20260504230542 51 101 0.0 2.0 0.00 0.06 0.00 89 1009.4
20260504230502 51 101 0.0 2.0 0.00 0.06 0.00 89 1009.4
20260504230440 51 103 0.0 2.0 0.00 0.06 0.00 89 1009.5
20260504230340 51 105 0.0 2.0 0.00 0.06 0.00 89 1009.5
20260504230240 51 105 0.0 2.0 0.00 0.06 0.00 89 1009.5
20260504230222 51 105 0.0 2.0 0.00 0.06 0.00 89 1009.5
20260504230214 51 105 1.0 2.0 0.00 0.06 0.00 89 1009.5
20260504225936 51 105 1.0 2.0 0.00 0.06 0.00 89 1009.4
20260504225834 51 105 1.0 3.0 0.00 0.06 0.00 89 1009.5
20260504225732 51 105 1.0 3.0 0.00 0.06 0.00 88 1009.4
20260504225632 51 96 1.0 3.0 0.00 0.06 0.00 88 1009.5
20260504225502 51 97 1.0 3.0 0.00 0.06 0.00 88 1009.5
20260504225430 51 97 1.0 3.0 0.00 0.06 0.00 88 1009.5
20260504225330 52 97 1.0 3.0 0.00 0.06 0.00 88 1009.5
20260504225230 52 97 1.0 3.0 0.00 0.06 0.00 88 1009.5
20260504225130 52 97 1.0 3.0 0.00 0.06 0.00 88 1009.5
20260504225001 52 97 1.0 3.0 0.00 0.06 0.00 87 1009.5
20260504224930 52 97 1.0 3.0 0.00 0.06 0.00 87 1009.5
20260504224830 52 104 1.0 2.0 0.00 0.06 0.00 87 1009.5
20260504224727 52 100 1.0 3.0 0.00 0.06 0.00 88 1009.5